Time,TemperatureF,DewpointF,PressureIn,WindDirection,WindDirectionDegrees,WindSpeedMPH,WindSpeedGustMPH,Humidity,HourlyPrecipIn,Conditions,Clouds,dailyrainin,SolarRadiationWatts/m^2,SoftwareType,DateUTC
2013-07-21 00:01:00,74.8,62.2,29.99,South,173,1.0,3.0,65,0.00,,,0.00,0,Wunderground v.1.15,2013-07-21 05:01:00,
2013-07-21 00:02:00,74.8,62.7,29.98,South,173,1.0,3.0,66,0.00,,,0.00,0,Wunderground v.1.15,2013-07-21 05:02:00,
2013-07-21 00:03:00,74.8,62.7,29.98,South,173,1.0,3.0,66,0.00,,,0.00,0,Wunderground v.1.15,2013-07-21 05:03:00,
2013-07-21 00:05:00,74.9,62.8,29.98,South,173,1.0,3.0,66,0.00,,,0.00,0,Wunderground v.1.15,2013-07-21 05:05:00,
2013-07-21 00:06:00,74.9,62.8,29.99,South,173,1.0,3.0,66,0.00,,,0.00,0,Wunderground v.1.15,2013-07-21 05:06:00,
2013-07-21 00:07:00,74.9,62.8,29.99,South,173,1.0,3.0,66,0.00,,,0.00,0,Wunderground v.1.15,2013-07-21 05:07:00,
2013-07-21 00:08:00,74.9,62.8,29.99,South,173,2.0,3.0,66,0.00,,,0.00,0,Wunderground v.1.15,2013-07-21 05:08:00,
2013-07-21 00:09:00,74.9,62.8,29.99,South,173,2.0,3.0,66,0.00,,,0.00,0,Wunderground v.1.15,2013-07-21 05:09:00,
2013-07-21 00:12:00,74.9,62.8,29.99,South,172,2.0,2.0,66,0.00,,,0.00,0,Wunderground v.1.15,2013-07-21 05:12:00,
2013-07-21 00:13:00,74.9,62.8,29.99,South,172,2.0,2.0,66,0.00,,,0.00,0,Wunderground v.1.15,2013-07-21 05:13:00,
2013-07-21 00:14:00,74.8,62.7,29.99,South,172,2.0,2.0,66,0.00,,,0.00,0,Wunderground v.1.15,2013-07-21 05:14:00,
2013-07-21 00:17:00,74.7,63.0,29.99,South,172,1.0,2.0,67,0.00,,,0.00,0,Wunderground v.1.15,2013-07-21 05:17:00,
2013-07-21 00:19:00,74.6,62.9,29.99,South,172,1.0,2.0,67,0.00,,,0.00,0,Wunderground v.1.15,2013-07-21 05:19:00,
2013-07-21 00:23:00,74.4,62.7,29.99,South,172,0.0,1.0,67,0.00,,,0.00,0,Wunderground v.1.15,2013-07-21 05:23:00,
2013-07-21 00:24:00,74.3,62.6,29.99,South,172,0.0,1.0,67,0.00,,,0.00,0,Wunderground v.1.15,2013-07-21 05:24:00,
2013-07-21 00:26:00,74.3,62.6,29.99,South,172,0.0,1.0,67,0.00,,,0.00,0,Wunderground v.1.15,2013-07-21 05:26:00,
2013-07-21 00:28:00,74.2,62.5,29.99,South,172,0.0,1.0,67,0.00,,,0.00,0,Wunderground v.1.15,2013-07-21 05:28:00,
2013-07-21 00:29:00,74.1,62.9,29.99,South,172,0.0,1.0,68,0.00,,,0.00,0,Wunderground v.1.15,2013-07-21 05:29:00,
2013-07-21 00:33:00,73.9,62.7,29.99,South,172,1.0,2.0,68,0.00,,,0.00,0,Wunderground v.1.15,2013-07-21 05:33:00,
2013-07-21 00:34:00,73.8,62.6,29.99,South,172,1.0,2.0,68,0.00,,,0.00,0,Wunderground v.1.15,2013-07-21 05:34:00,
2013-07-21 00:37:00,73.7,62.9,29.99,South,172,1.0,2.0,69,0.00,,,0.00,0,Wunderground v.1.15,2013-07-21 05:37:00,
2013-07-21 00:40:00,73.5,62.7,29.99,South,172,1.0,1.0,69,0.00,,,0.00,0,Wunderground v.1.15,2013-07-21 05:40:00,
2013-07-21 00:41:00,73.5,63.1,29.99,South,172,1.0,1.0,70,0.00,,,0.00,0,Wunderground v.1.15,2013-07-21 05:41:00,
2013-07-21 00:42:00,73.4,63.0,29.99,South,172,1.0,2.0,70,0.00,,,0.00,0,Wunderground v.1.15,2013-07-21 05:42:00,
2013-07-21 00:43:00,73.4,63.0,29.99,South,172,1.0,2.0,70,0.00,,,0.00,0,Wunderground v.1.15,2013-07-21 05:43:00,
2013-07-21 00:44:00,73.3,62.9,29.99,South,172,1.0,2.0,70,0.00,,,0.00,0,Wunderground v.1.15,2013-07-21 05:44:00,
2013-07-21 00:48:00,73.2,63.2,29.99,South,172,1.0,2.0,71,0.00,,,0.00,0,Wunderground v.1.15,2013-07-21 05:48:00,
2013-07-21 00:49:00,73.2,63.2,30.00,South,172,1.0,2.0,71,0.00,,,0.00,0,Wunderground v.1.15,2013-07-21 05:49:00,
2013-07-21 00:50:00,73.2,63.2,30.00,South,172,1.0,1.0,71,0.00,,,0.00,0,Wunderground v.1.15,2013-07-21 05:50:00,
2013-07-21 00:51:00,73.1,63.1,30.00,South,172,1.0,1.0,71,0.00,,,0.00,0,Wunderground v.1.15,2013-07-21 05:51:00,
2013-07-21 00:53:00,73.1,63.1,30.00,South,172,0.0,1.0,71,0.00,,,0.00,0,Wunderground v.1.15,2013-07-21 05:53:00,
2013-07-21 00:55:00,73.1,63.1,30.00,South,172,0.0,1.0,71,0.00,,,0.00,0,Wunderground v.1.15,2013-07-21 05:55:00,
2013-07-21 00:57:00,73.1,63.1,30.00,South,172,0.0,1.0,71,0.00,,,0.00,0,Wunderground v.1.15,2013-07-21 05:57:00,
2013-07-21 00:58:00,73.1,63.1,30.00,South,172,0.0,1.0,71,0.00,,,0.00,0,Wunderground v.1.15,2013-07-21 05:58:00,
2013-07-21 00:59:00,73.2,63.6,30.00,South,172,0.0,1.0,72,0.00,,,0.00,0,Wunderground v.1.15,2013-07-21 05:59:00,
2013-07-21 01:01:00,73.2,63.6,30.00,South,172,0.0,4.0,72,0.00,,,0.00,0,Wunderground v.1.15,2013-07-21 06:01:00,
2013-07-21 01:02:00,73.2,63.6,30.00,South,172,0.0,4.0,72,0.00,,,0.00,0,Wunderground v.1.15,2013-07-21 06:02:00,
2013-07-21 01:03:00,73.2,63.6,30.00,South,172,0.0,4.0,72,0.00,,,0.00,0,Wunderground v.1.15,2013-07-21 06:03:00,
2013-07-21 01:08:00,73.2,63.6,29.99,South,172,0.0,4.0,72,0.00,,,0.00,0,Wunderground v.1.15,2013-07-21 06:08:00,
2013-07-21 01:10:00,73.2,63.6,29.99,South,172,0.0,0.0,72,0.00,,,0.00,0,Wunderground v.1.15,2013-07-21 06:10:00,
2013-07-21 01:12:00,73.2,63.6,29.99,South,171,0.0,1.0,72,0.00,,,0.00,0,Wunderground v.1.15,2013-07-21 06:12:00,
2013-07-21 01:13:00,73.2,63.6,29.99,South,171,0.0,1.0,72,0.00,,,0.00,0,Wunderground v.1.15,2013-07-21 06:13:00,
2013-07-21 01:14:00,73.2,63.6,29.99,South,171,0.0,1.0,72,0.00,,,0.00,0,Wunderground v.1.15,2013-07-21 06:14:00,
2013-07-21 01:15:00,73.2,63.6,29.99,South,171,0.0,2.0,72,0.00,,,0.00,0,Wunderground v.1.15,2013-07-21 06:15:00,
2013-07-21 01:16:00,73.2,63.6,29.99,South,171,1.0,2.0,72,0.00,,,0.00,0,Wunderground v.1.15,2013-07-21 06:16:00,
2013-07-21 01:18:00,73.3,63.7,29.99,South,171,1.0,2.0,72,0.00,,,0.00,0,Wunderground v.1.15,2013-07-21 06:18:00,
2013-07-21 01:19:00,73.3,63.7,29.99,South,171,2.0,2.0,72,0.00,,,0.00,0,Wunderground v.1.15,2013-07-21 06:19:00,
2013-07-21 01:21:00,73.3,63.7,29.99,South,171,2.0,2.0,72,0.00,,,0.00,0,Wunderground v.1.15,2013-07-21 06:21:00,
2013-07-21 01:22:00,73.3,63.7,29.99,South,171,2.0,2.0,72,0.00,,,0.00,0,Wunderground v.1.15,2013-07-21 06:22:00,
2013-07-21 01:25:00,73.3,63.7,29.99,South,171,1.0,2.0,72,0.00,,,0.00,0,Wunderground v.1.15,2013-07-21 06:25:00,
2013-07-21 01:28:00,73.2,63.6,29.99,South,171,1.0,2.0,72,0.00,,,0.00,0,Wunderground v.1.15,2013-07-21 06:28:00,
2013-07-21 01:29:00,73.2,63.6,29.99,South,171,0.0,2.0,72,0.00,,,0.00,0,Wunderground v.1.15,2013-07-21 06:29:00,
2013-07-21 01:30:00,73.2,63.6,29.99,South,171,0.0,0.0,72,0.00,,,0.00,0,Wunderground v.1.15,2013-07-21 06:30:00,
2013-07-21 01:31:00,73.2,63.6,29.99,South,171,0.0,0.0,72,0.00,,,0.00,0,Wunderground v.1.15,2013-07-21 06:31:00,
2013-07-21 01:36:00,73.1,63.5,29.99,South,171,0.0,0.0,72,0.00,,,0.00,0,Wunderground v.1.15,2013-07-21 06:36:00,
2013-07-21 01:37:00,73.1,63.5,29.99,South,171,0.0,0.0,72,0.00,,,0.00,0,Wunderground v.1.15,2013-07-21 06:37:00,
2013-07-21 01:38:00,73.1,63.5,29.99,South,171,0.0,0.0,72,0.00,,,0.00,0,Wunderground v.1.15,2013-07-21 06:38:00,
2013-07-21 01:40:00,73.1,63.9,29.99,South,171,0.0,0.0,73,0.00,,,0.00,0,Wunderground v.1.15,2013-07-21 06:40:00,
2013-07-21 01:42:00,73.0,63.8,29.98,South,171,0.0,0.0,73,0.00,,,0.00,0,Wunderground v.1.15,2013-07-21 06:42:00,
2013-07-21 01:45:00,73.0,63.8,29.99,South,171,0.0,0.0,73,0.00,,,0.00,0,Wunderground v.1.15,2013-07-21 06:45:00,
2013-07-21 01:46:00,72.9,64.1,29.99,South,171,0.0,0.0,74,0.00,,,0.00,0,Wunderground v.1.15,2013-07-21 06:46:00,
2013-07-21 01:47:00,72.9,64.1,29.99,South,171,0.0,0.0,74,0.00,,,0.00,0,Wunderground v.1.15,2013-07-21 06:47:00,
2013-07-21 01:48:00,72.9,64.1,29.99,South,171,0.0,0.0,74,0.00,,,0.00,0,Wunderground v.1.15,2013-07-21 06:48:00,
2013-07-21 01:50:00,72.8,64.0,29.99,South,171,0.0,0.0,74,0.00,,,0.00,0,Wunderground v.1.15,2013-07-21 06:50:00,
2013-07-21 01:51:00,72.8,64.0,29.99,South,171,0.0,0.0,74,0.00,,,0.00,0,Wunderground v.1.15,2013-07-21 06:51:00,
2013-07-21 01:54:00,72.7,63.9,29.98,South,171,0.0,0.0,74,0.00,,,0.00,0,Wunderground v.1.15,2013-07-21 06:54:00,
2013-07-21 01:55:00,72.7,63.9,29.98,South,171,0.0,0.0,74,0.00,,,0.00,0,Wunderground v.1.15,2013-07-21 06:55:00,
2013-07-21 01:58:00,72.6,63.8,29.98,South,171,0.0,0.0,74,0.00,,,0.00,0,Wunderground v.1.15,2013-07-21 06:58:00,
2013-07-21 02:00:00,72.5,64.1,29.98,South,171,0.0,0.0,75,0.00,,,0.00,0,Wunderground v.1.15,2013-07-21 07:00:00,
2013-07-21 02:02:00,72.4,64.0,29.98,South,171,0.0,4.0,75,0.00,,,0.00,0,Wunderground v.1.15,2013-07-21 07:02:00,
2013-07-21 02:03:00,72.4,64.0,29.98,South,171,0.0,4.0,75,0.00,,,0.00,0,Wunderground v.1.15,2013-07-21 07:03:00,
2013-07-21 02:05:00,72.3,63.9,29.98,South,171,0.0,4.0,75,0.00,,,0.00,0,Wunderground v.1.15,2013-07-21 07:05:00,
2013-07-21 02:07:00,72.3,63.9,29.98,South,171,0.0,4.0,75,0.00,,,0.00,0,Wunderground v.1.15,2013-07-21 07:07:00,
2013-07-21 02:11:00,72.2,63.8,29.98,South,171,1.0,1.0,75,0.00,,,0.00,0,Wunderground v.1.15,2013-07-21 07:11:00,
2013-07-21 02:12:00,72.2,63.8,29.97,SSE,167,1.0,1.0,75,0.00,,,0.00,0,Wunderground v.1.15,2013-07-21 07:12:00,
2013-07-21 02:15:00,72.2,63.8,29.97,SSE,167,1.0,1.0,75,0.00,,,0.00,0,Wunderground v.1.15,2013-07-21 07:15:00,
2013-07-21 02:16:00,72.2,63.8,29.97,SSE,167,1.0,1.0,75,0.00,,,0.00,0,Wunderground v.1.15,2013-07-21 07:16:00,
2013-07-21 02:17:00,72.2,63.8,29.97,SSE,167,1.0,1.0,75,0.00,,,0.00,0,Wunderground v.1.15,2013-07-21 07:17:00,
2013-07-21 02:19:00,72.2,63.8,29.97,SSE,167,1.0,1.0,75,0.00,,,0.00,0,Wunderground v.1.15,2013-07-21 07:19:00,
2013-07-21 02:21:00,72.2,63.8,29.97,SSE,167,1.0,1.0,75,0.00,,,0.00,0,Wunderground v.1.15,2013-07-21 07:21:00,
2013-07-21 02:22:00,72.2,63.8,29.97,SSE,167,1.0,1.0,75,0.00,,,0.00,0,Wunderground v.1.15,2013-07-21 07:22:00,
2013-07-21 02:23:00,72.2,63.8,29.97,SSE,167,1.0,1.0,75,0.00,,,0.00,0,Wunderground v.1.15,2013-07-21 07:23:00,
2013-07-21 02:25:00,72.2,63.8,29.97,SSE,167,0.0,1.0,75,0.00,,,0.00,0,Wunderground v.1.15,2013-07-21 07:25:00,
2013-07-21 02:26:00,72.2,63.8,29.97,SSE,167,0.0,1.0,75,0.00,,,0.00,0,Wunderground v.1.15,2013-07-21 07:26:00,
2013-07-21 02:28:00,72.2,63.8,29.97,SSE,167,0.0,1.0,75,0.00,,,0.00,0,Wunderground v.1.15,2013-07-21 07:28:00,
2013-07-21 02:29:00,72.2,63.8,29.97,SSE,167,0.0,1.0,75,0.00,,,0.00,0,Wunderground v.1.15,2013-07-21 07:29:00,
2013-07-21 02:31:00,72.2,63.8,29.97,SSE,167,0.0,0.0,75,0.00,,,0.00,0,Wunderground v.1.15,2013-07-21 07:31:00,
2013-07-21 02:33:00,72.2,63.8,29.97,SSE,167,0.0,0.0,75,0.00,,,0.00,0,Wunderground v.1.15,2013-07-21 07:33:00,
2013-07-21 02:37:00,72.2,63.8,29.97,SSE,167,0.0,0.0,75,0.00,,,0.00,0,Wunderground v.1.15,2013-07-21 07:37:00,
2013-07-21 02:39:00,72.1,63.7,29.96,SSE,167,0.0,0.0,75,0.00,,,0.00,0,Wunderground v.1.15,2013-07-21 07:39:00,
2013-07-21 02:40:00,72.1,63.7,29.97,SSE,167,0.0,0.0,75,0.00,,,0.00,0,Wunderground v.1.15,2013-07-21 07:40:00,
2013-07-21 02:41:00,72.1,63.7,29.97,SSE,167,0.0,0.0,75,0.00,,,0.00,0,Wunderground v.1.15,2013-07-21 07:41:00,
2013-07-21 02:43:00,72.0,63.6,29.97,SSE,167,0.0,0.0,75,0.00,,,0.00,0,Wunderground v.1.15,2013-07-21 07:43:00,
2013-07-21 02:45:00,71.9,63.5,29.97,SSE,167,0.0,2.0,75,0.00,,,0.00,0,Wunderground v.1.15,2013-07-21 07:45:00,
2013-07-21 02:46:00,71.9,63.5,29.97,SSE,167,0.0,2.0,75,0.00,,,0.00,0,Wunderground v.1.15,2013-07-21 07:46:00,
2013-07-21 02:47:00,71.9,63.5,29.97,SSE,167,0.0,2.0,75,0.00,,,0.00,0,Wunderground v.1.15,2013-07-21 07:47:00,
2013-07-21 02:49:00,71.8,63.8,29.97,SSE,167,0.0,2.0,76,0.00,,,0.00,0,Wunderground v.1.15,2013-07-21 07:49:00,
2013-07-21 02:53:00,71.7,63.7,29.97,SSE,167,1.0,1.0,76,0.00,,,0.00,0,Wunderground v.1.15,2013-07-21 07:53:00,
2013-07-21 02:55:00,71.6,63.6,29.96,SSE,167,1.0,1.0,76,0.00,,,0.00,0,Wunderground v.1.15,2013-07-21 07:55:00,
2013-07-21 02:58:00,71.6,63.6,29.96,SSE,167,1.0,1.0,76,0.00,,,0.00,0,Wunderground v.1.15,2013-07-21 07:58:00,
2013-07-21 03:00:00,71.6,63.6,29.96,SSE,167,1.0,1.0,76,0.00,,,0.00,0,Wunderground v.1.15,2013-07-21 08:00:00,
2013-07-21 03:03:00,71.5,63.5,29.96,SSE,167,1.0,5.0,76,0.00,,,0.00,0,Wunderground v.1.15,2013-07-21 08:03:00,
2013-07-21 03:04:00,71.5,63.5,29.96,SSE,167,1.0,5.0,76,0.00,,,0.00,0,Wunderground v.1.15,2013-07-21 08:04:00,
2013-07-21 03:06:00,71.6,63.6,29.96,SSE,167,1.0,5.0,76,0.00,,,0.00,0,Wunderground v.1.15,2013-07-21 08:06:00,
2013-07-21 03:07:00,71.6,63.6,29.96,SSE,167,1.0,5.0,76,0.00,,,0.00,0,Wunderground v.1.15,2013-07-21 08:07:00,
2013-07-21 03:11:00,71.6,63.6,29.96,SSE,167,1.0,2.0,76,0.00,,,0.00,0,Wunderground v.1.15,2013-07-21 08:11:00,
2013-07-21 03:13:00,71.7,63.7,29.96,SSE,167,2.0,2.0,76,0.00,,,0.00,0,Wunderground v.1.15,2013-07-21 08:13:00,
2013-07-21 03:15:00,71.7,63.7,29.96,SSE,167,2.0,2.0,76,0.00,,,0.00,0,Wunderground v.1.15,2013-07-21 08:15:00,
2013-07-21 03:16:00,71.7,63.7,29.96,SSE,167,2.0,2.0,76,0.00,,,0.00,0,Wunderground v.1.15,2013-07-21 08:16:00,
2013-07-21 03:19:00,71.7,63.7,29.95,SSE,167,2.0,2.0,76,0.00,,,0.00,0,Wunderground v.1.15,2013-07-21 08:19:00,
2013-07-21 03:22:00,71.6,63.6,29.95,SSE,167,1.0,2.0,76,0.00,,,0.00,0,Wunderground v.1.15,2013-07-21 08:22:00,
2013-07-21 03:24:00,71.5,63.5,29.95,SSE,167,1.0,2.0,76,0.00,,,0.00,0,Wunderground v.1.15,2013-07-21 08:24:00,
2013-07-21 03:25:00,71.5,63.5,29.95,SSE,167,1.0,2.0,76,0.00,,,0.00,0,Wunderground v.1.15,2013-07-21 08:25:00,
2013-07-21 03:26:00,71.5,63.5,29.95,SSE,167,1.0,2.0,76,0.00,,,0.00,0,Wunderground v.1.15,2013-07-21 08:26:00,
2013-07-21 03:28:00,71.4,63.4,29.95,SSE,167,0.0,2.0,76,0.00,,,0.00,0,Wunderground v.1.15,2013-07-21 08:28:00,
2013-07-21 03:29:00,71.3,63.3,29.95,SSE,167,0.0,2.0,76,0.00,,,0.00,0,Wunderground v.1.15,2013-07-21 08:29:00,
2013-07-21 03:31:00,71.3,63.3,29.95,SSE,167,0.0,0.0,76,0.00,,,0.00,0,Wunderground v.1.15,2013-07-21 08:31:00,
2013-07-21 03:33:00,71.2,63.6,29.95,SSE,167,0.0,0.0,77,0.00,,,0.00,0,Wunderground v.1.15,2013-07-21 08:33:00,
2013-07-21 03:34:00,71.2,63.6,29.95,SSE,167,0.0,0.0,77,0.00,,,0.00,0,Wunderground v.1.15,2013-07-21 08:34:00,
2013-07-21 03:39:00,71.1,63.5,29.95,SSE,167,0.0,0.0,77,0.00,,,0.00,0,Wunderground v.1.15,2013-07-21 08:39:00,
2013-07-21 03:40:00,71.1,63.5,29.95,SSE,167,0.0,0.0,77,0.00,,,0.00,0,Wunderground v.1.15,2013-07-21 08:40:00,
2013-07-21 03:41:00,71.1,63.5,29.95,SSE,167,0.0,0.0,77,0.00,,,0.00,0,Wunderground v.1.15,2013-07-21 08:41:00,
2013-07-21 03:44:00,71.0,63.4,29.95,SSE,167,0.0,0.0,77,0.00,,,0.00,0,Wunderground v.1.15,2013-07-21 08:44:00,
2013-07-21 03:45:00,71.0,63.4,29.95,SSE,167,0.0,1.0,77,0.00,,,0.00,0,Wunderground v.1.15,2013-07-21 08:45:00,
2013-07-21 03:47:00,71.0,63.4,29.95,SSE,167,0.0,2.0,77,0.00,,,0.00,0,Wunderground v.1.15,2013-07-21 08:47:00,
2013-07-21 03:51:00,71.0,63.4,29.95,SSE,167,1.0,2.0,77,0.00,,,0.00,0,Wunderground v.1.15,2013-07-21 08:51:00,
2013-07-21 03:52:00,71.0,63.4,29.95,SSE,167,1.0,2.0,77,0.00,,,0.00,0,Wunderground v.1.15,2013-07-21 08:52:00,
2013-07-21 03:53:00,71.0,63.4,29.95,SSE,167,1.0,2.0,77,0.00,,,0.00,0,Wunderground v.1.15,2013-07-21 08:53:00,
2013-07-21 03:56:00,70.9,63.3,29.95,SSE,167,1.0,2.0,77,0.00,,,0.00,0,Wunderground v.1.15,2013-07-21 08:56:00,
2013-07-21 03:57:00,70.9,63.3,29.94,SSE,167,1.0,2.0,77,0.00,,,0.00,0,Wunderground v.1.15,2013-07-21 08:57:00,
2013-07-21 03:58:00,70.9,63.3,29.94,SSE,167,1.0,2.0,77,0.00,,,0.00,0,Wunderground v.1.15,2013-07-21 08:58:00,
2013-07-21 03:59:00,70.9,63.3,29.95,SSE,167,1.0,2.0,77,0.00,,,0.00,0,Wunderground v.1.15,2013-07-21 08:59:00,
2013-07-21 04:02:00,70.9,63.3,29.95,SSE,167,1.0,4.0,77,0.00,,,0.00,0,Wunderground v.1.15,2013-07-21 09:02:00,
2013-07-21 04:03:00,70.9,63.3,29.95,SSE,167,1.0,4.0,77,0.00,,,0.00,0,Wunderground v.1.15,2013-07-21 09:03:00,
2013-07-21 04:04:00,70.9,63.3,29.95,SSE,167,1.0,4.0,77,0.00,,,0.00,0,Wunderground v.1.15,2013-07-21 09:04:00,
2013-07-21 04:05:00,70.9,63.3,29.94,SSE,167,1.0,4.0,77,0.00,,,0.00,0,Wunderground v.1.15,2013-07-21 09:05:00,
2013-07-21 04:09:00,70.8,63.2,29.94,SSE,167,0.0,4.0,77,0.00,,,0.00,0,Wunderground v.1.15,2013-07-21 09:09:00,
2013-07-21 04:11:00,70.8,63.2,29.94,SSE,167,0.0,1.0,77,0.00,,,0.00,0,Wunderground v.1.15,2013-07-21 09:11:00,
2013-07-21 04:12:00,70.8,63.2,29.94,SSE,167,0.0,1.0,77,0.00,,,0.00,0,Wunderground v.1.15,2013-07-21 09:12:00,
2013-07-21 04:13:00,70.8,63.2,29.94,SSE,167,0.0,1.0,77,0.00,,,0.00,0,Wunderground v.1.15,2013-07-21 09:13:00,
2013-07-21 04:17:00,70.7,63.1,29.94,SSE,167,0.0,1.0,77,0.00,,,0.00,0,Wunderground v.1.15,2013-07-21 09:17:00,
2013-07-21 04:18:00,70.7,63.5,29.94,SSE,167,0.0,1.0,78,0.00,,,0.00,0,Wunderground v.1.15,2013-07-21 09:18:00,
2013-07-21 04:19:00,70.7,63.5,29.94,SSE,167,0.0,1.0,78,0.00,,,0.00,0,Wunderground v.1.15,2013-07-21 09:19:00,
2013-07-21 04:21:00,70.7,63.1,29.94,SSE,167,0.0,0.0,77,0.00,,,0.00,0,Wunderground v.1.15,2013-07-21 09:21:00,
2013-07-21 04:22:00,70.7,63.1,29.95,SSE,167,0.0,0.0,77,0.00,,,0.00,0,Wunderground v.1.15,2013-07-21 09:22:00,
2013-07-21 04:23:00,70.6,63.0,29.94,SSE,167,0.0,0.0,77,0.00,,,0.00,0,Wunderground v.1.15,2013-07-21 09:23:00,
2013-07-21 04:24:00,70.6,63.0,29.95,SSE,167,0.0,0.0,77,0.00,,,0.00,0,Wunderground v.1.15,2013-07-21 09:24:00,
2013-07-21 04:27:00,70.5,63.3,29.94,SSE,167,0.0,0.0,78,0.00,,,0.00,0,Wunderground v.1.15,2013-07-21 09:27:00,
2013-07-21 04:28:00,70.5,63.3,29.94,SSE,167,0.0,0.0,78,0.00,,,0.00,0,Wunderground v.1.15,2013-07-21 09:28:00,
2013-07-21 04:31:00,70.4,63.2,29.94,SSE,167,0.0,0.0,78,0.00,,,0.00,0,Wunderground v.1.15,2013-07-21 09:31:00,
2013-07-21 04:33:00,70.4,63.2,29.94,SSE,167,0.0,0.0,78,0.00,,,0.00,0,Wunderground v.1.15,2013-07-21 09:33:00,
2013-07-21 04:34:00,70.3,63.1,29.94,SSE,167,0.0,0.0,78,0.00,,,0.00,0,Wunderground v.1.15,2013-07-21 09:34:00,
2013-07-21 04:36:00,70.3,63.1,29.94,SSE,167,0.0,0.0,78,0.00,,,0.00,0,Wunderground v.1.15,2013-07-21 09:36:00,
2013-07-21 04:37:00,70.2,63.0,29.94,SSE,167,0.0,0.0,78,0.00,,,0.00,0,Wunderground v.1.15,2013-07-21 09:37:00,
2013-07-21 04:38:00,70.2,63.0,29.94,SSE,167,0.0,0.0,78,0.00,,,0.00,0,Wunderground v.1.15,2013-07-21 09:38:00,
2013-07-21 04:41:00,70.1,62.9,29.94,SSE,167,0.0,0.0,78,0.00,,,0.00,0,Wunderground v.1.15,2013-07-21 09:41:00,
2013-07-21 04:43:00,70.0,63.2,29.94,SSE,167,0.0,0.0,79,0.00,,,0.00,0,Wunderground v.1.15,2013-07-21 09:43:00,
2013-07-21 04:45:00,69.9,63.1,29.94,SSE,167,0.0,0.0,79,0.00,,,0.00,0,Wunderground v.1.15,2013-07-21 09:45:00,
2013-07-21 04:48:00,69.8,63.0,29.95,SSE,167,0.0,0.0,79,0.00,,,0.00,0,Wunderground v.1.15,2013-07-21 09:48:00,
2013-07-21 04:49:00,69.7,62.9,29.95,SSE,167,0.0,0.0,79,0.00,,,0.00,0,Wunderground v.1.15,2013-07-21 09:49:00,
2013-07-21 04:50:00,69.7,62.9,29.95,SSE,167,0.0,0.0,79,0.00,,,0.00,0,Wunderground v.1.15,2013-07-21 09:50:00,
2013-07-21 04:53:00,69.6,63.2,29.95,SSE,167,0.0,2.0,80,0.00,,,0.00,0,Wunderground v.1.15,2013-07-21 09:53:00,
2013-07-21 04:54:00,69.5,63.1,29.95,SSE,167,0.0,2.0,80,0.00,,,0.00,0,Wunderground v.1.15,2013-07-21 09:54:00,
2013-07-21 04:56:00,69.5,63.1,29.95,SSE,167,0.0,2.0,80,0.00,,,0.00,0,Wunderground v.1.15,2013-07-21 09:56:00,
2013-07-21 04:57:00,69.4,63.0,29.95,SSE,167,0.0,2.0,80,0.00,,,0.00,0,Wunderground v.1.15,2013-07-21 09:57:00,
2013-07-21 04:59:00,69.4,63.0,29.95,SSE,167,0.0,2.0,80,0.00,,,0.00,0,Wunderground v.1.15,2013-07-21 09:59:00,
2013-07-21 05:00:00,69.4,63.0,29.95,SSE,167,0.0,0.0,80,0.00,,,0.00,0,Wunderground v.1.15,2013-07-21 10:00:00,
2013-07-21 05:01:00,69.3,63.2,29.95,SSE,167,0.0,4.0,81,0.00,,,0.00,0,Wunderground v.1.15,2013-07-21 10:01:00,
2013-07-21 05:02:00,69.3,63.2,29.94,SSE,167,0.0,4.0,81,0.00,,,0.00,0,Wunderground v.1.15,2013-07-21 10:02:00,
2013-07-21 05:06:00,69.1,63.0,29.94,SSE,167,0.0,4.0,81,0.00,,,0.00,0,Wunderground v.1.15,2013-07-21 10:06:00,
2013-07-21 05:07:00,69.0,62.9,29.94,SSE,167,1.0,4.0,81,0.00,,,0.00,0,Wunderground v.1.15,2013-07-21 10:07:00,
2013-07-21 05:08:00,69.0,62.9,29.94,SSE,167,1.0,4.0,81,0.00,,,0.00,0,Wunderground v.1.15,2013-07-21 10:08:00,
2013-07-21 05:10:00,68.9,62.8,29.94,SSE,167,1.0,1.0,81,0.00,,,0.00,0,Wunderground v.1.15,2013-07-21 10:10:00,
2013-07-21 05:13:00,68.7,62.6,29.94,SSE,167,1.0,2.0,81,0.00,,,0.00,0,Wunderground v.1.15,2013-07-21 10:13:00,
2013-07-21 05:14:00,68.7,62.6,29.94,SSE,167,1.0,2.0,81,0.00,,,0.00,0,Wunderground v.1.15,2013-07-21 10:14:00,
2013-07-21 05:15:00,68.7,62.6,29.94,SSE,167,1.0,2.0,81,0.00,,,0.00,0,Wunderground v.1.15,2013-07-21 10:15:00,
2013-07-21 05:19:00,68.6,62.9,29.94,SSE,167,0.0,2.0,82,0.00,,,0.00,0,Wunderground v.1.15,2013-07-21 10:19:00,
2013-07-21 05:20:00,68.6,62.9,29.94,SSE,167,0.0,0.0,82,0.00,,,0.00,0,Wunderground v.1.15,2013-07-21 10:20:00,
2013-07-21 05:21:00,68.5,62.8,29.94,SSE,167,0.0,0.0,82,0.00,,,0.00,0,Wunderground v.1.15,2013-07-21 10:21:00,
2013-07-21 05:22:00,68.5,62.8,29.94,SSE,167,0.0,0.0,82,0.00,,,0.00,0,Wunderground v.1.15,2013-07-21 10:22:00,
2013-07-21 05:24:00,68.5,62.8,29.94,SSE,167,0.0,0.0,82,0.00,,,0.00,0,Wunderground v.1.15,2013-07-21 10:24:00,
2013-07-21 05:25:00,68.5,62.8,29.95,SSE,167,0.0,0.0,82,0.00,,,0.00,0,Wunderground v.1.15,2013-07-21 10:25:00,
2013-07-21 05:27:00,68.4,62.7,29.95,SSE,167,0.0,0.0,82,0.00,,,0.00,0,Wunderground v.1.15,2013-07-21 10:27:00,
2013-07-21 05:29:00,68.4,62.7,29.94,SSE,167,0.0,0.0,82,0.00,,,0.00,0,Wunderground v.1.15,2013-07-21 10:29:00,
2013-07-21 05:30:00,68.3,62.6,29.95,SSE,167,0.0,0.0,82,0.00,,,0.00,0,Wunderground v.1.15,2013-07-21 10:30:00,
2013-07-21 05:33:00,68.3,62.6,29.95,SSE,167,0.0,0.0,82,0.00,,,0.00,0,Wunderground v.1.15,2013-07-21 10:33:00,
2013-07-21 05:36:00,68.2,62.8,29.95,SSE,167,0.0,0.0,83,0.00,,,0.00,0,Wunderground v.1.15,2013-07-21 10:36:00,
2013-07-21 05:37:00,68.2,62.8,29.95,SSE,167,0.0,0.0,83,0.00,,,0.00,0,Wunderground v.1.15,2013-07-21 10:37:00,
2013-07-21 05:38:00,68.2,62.8,29.95,SSE,167,0.0,0.0,83,0.00,,,0.00,0,Wunderground v.1.15,2013-07-21 10:38:00,
2013-07-21 05:42:00,68.1,62.7,29.94,SSE,167,0.0,0.0,83,0.00,,,0.00,0,Wunderground v.1.15,2013-07-21 10:42:00,
2013-07-21 05:43:00,68.1,62.7,29.94,SSE,167,0.0,0.0,83,0.00,,,0.00,0,Wunderground v.1.15,2013-07-21 10:43:00,
2013-07-21 05:44:00,68.1,62.7,29.95,SSE,167,0.0,0.0,83,0.00,,,0.00,0,Wunderground v.1.15,2013-07-21 10:44:00,
2013-07-21 05:45:00,68.1,62.7,29.95,SSE,167,0.0,0.0,83,0.00,,,0.00,0,Wunderground v.1.15,2013-07-21 10:45:00,
2013-07-21 05:47:00,68.0,62.6,29.95,SSE,167,0.0,0.0,83,0.00,,,0.00,0,Wunderground v.1.15,2013-07-21 10:47:00,
2013-07-21 05:50:00,68.0,62.6,29.94,SSE,167,0.0,0.0,83,0.00,,,0.00,0,Wunderground v.1.15,2013-07-21 10:50:00,
2013-07-21 05:53:00,67.9,62.5,29.95,SSE,167,0.0,0.0,83,0.00,,,0.00,0,Wunderground v.1.15,2013-07-21 10:53:00,
2013-07-21 05:55:00,67.9,62.5,29.95,SSE,167,0.0,0.0,83,0.00,,,0.00,0,Wunderground v.1.15,2013-07-21 10:55:00,
2013-07-21 05:57:00,67.8,62.4,29.95,SSE,167,0.0,0.0,83,0.00,,,0.00,0,Wunderground v.1.15,2013-07-21 10:57:00,
2013-07-21 06:00:00,67.7,62.3,29.95,SSE,167,0.0,0.0,83,0.00,,,0.00,0,Wunderground v.1.15,2013-07-21 11:00:00,
2013-07-21 06:01:00,67.7,62.3,29.94,SSE,167,0.0,2.0,83,0.00,,,0.00,0,Wunderground v.1.15,2013-07-21 11:01:00,
2013-07-21 06:02:00,67.7,62.3,29.94,SSE,167,0.0,2.0,83,0.00,,,0.00,0,Wunderground v.1.15,2013-07-21 11:02:00,
2013-07-21 06:03:00,67.7,62.3,29.94,SSE,167,0.0,2.0,83,0.00,,,0.00,5,Wunderground v.1.15,2013-07-21 11:03:00,
2013-07-21 06:06:00,67.6,62.3,29.94,SSE,167,0.0,2.0,83,0.00,,,0.00,5,Wunderground v.1.15,2013-07-21 11:06:00,
2013-07-21 06:08:00,67.6,62.3,29.94,SSE,167,0.0,2.0,83,0.00,,,0.00,9,Wunderground v.1.15,2013-07-21 11:08:00,
2013-07-21 06:11:00,67.5,62.5,29.94,SSE,167,0.0,0.0,84,0.00,,,0.00,11,Wunderground v.1.15,2013-07-21 11:11:00,
2013-07-21 06:12:00,67.5,62.5,29.94,SSE,167,0.0,0.0,84,0.00,,,0.00,11,Wunderground v.1.15,2013-07-21 11:12:00,
2013-07-21 06:16:00,67.4,62.4,29.94,SSE,167,0.0,0.0,84,0.00,,,0.00,14,Wunderground v.1.15,2013-07-21 11:16:00,
2013-07-21 06:17:00,67.4,62.4,29.95,SSE,167,0.0,0.0,84,0.00,,,0.00,14,Wunderground v.1.15,2013-07-21 11:17:00,
2013-07-21 06:18:00,67.4,62.4,29.94,SSE,167,0.0,0.0,84,0.00,,,0.00,14,Wunderground v.1.15,2013-07-21 11:18:00,
2013-07-21 06:19:00,67.4,62.4,29.94,SSE,167,0.0,0.0,84,0.00,,,0.00,16,Wunderground v.1.15,2013-07-21 11:19:00,
2013-07-21 06:20:00,67.4,62.4,29.94,SSE,167,0.0,0.0,84,0.00,,,0.00,18,Wunderground v.1.15,2013-07-21 11:20:00,
2013-07-21 06:22:00,67.3,62.3,29.94,SSE,167,0.0,0.0,84,0.00,,,0.00,19,Wunderground v.1.15,2013-07-21 11:22:00,
2013-07-21 06:24:00,67.2,62.2,29.94,SSE,167,0.0,0.0,84,0.00,,,0.00,25,Wunderground v.1.15,2013-07-21 11:24:00,
2013-07-21 06:25:00,67.2,62.2,29.94,SSE,167,0.0,0.0,84,0.00,,,0.00,25,Wunderground v.1.15,2013-07-21 11:25:00,
2013-07-21 06:26:00,67.1,62.1,29.94,SSE,167,0.0,1.0,84,0.00,,,0.00,26,Wunderground v.1.15,2013-07-21 11:26:00,
2013-07-21 06:31:00,66.9,61.9,29.95,SSE,167,0.0,0.0,84,0.00,,,0.00,35,Wunderground v.1.15,2013-07-21 11:31:00,
2013-07-21 06:32:00,66.9,61.9,29.95,SSE,167,0.0,0.0,84,0.00,,,0.00,37,Wunderground v.1.15,2013-07-21 11:32:00,
2013-07-21 06:33:00,66.8,61.8,29.95,SSE,167,0.0,0.0,84,0.00,,,0.00,39,Wunderground v.1.15,2013-07-21 11:33:00,
2013-07-21 06:36:00,66.8,61.8,29.95,SSE,167,0.0,0.0,84,0.00,,,0.00,42,Wunderground v.1.15,2013-07-21 11:36:00,
2013-07-21 06:37:00,66.8,62.1,29.95,SSE,167,0.0,0.0,85,0.00,,,0.00,39,Wunderground v.1.15,2013-07-21 11:37:00,
2013-07-21 06:38:00,66.8,61.8,29.95,SSE,167,0.0,0.0,84,0.00,,,0.00,35,Wunderground v.1.15,2013-07-21 11:38:00,
2013-07-21 06:40:00,66.8,62.1,29.95,SSE,167,0.0,0.0,85,0.00,,,0.00,37,Wunderground v.1.15,2013-07-21 11:40:00,
2013-07-21 06:42:00,66.7,62.0,29.95,SSE,167,0.0,0.0,85,0.00,,,0.00,40,Wunderground v.1.15,2013-07-21 11:42:00,
2013-07-21 06:43:00,66.7,62.0,29.95,SSE,167,0.0,0.0,85,0.00,,,0.00,42,Wunderground v.1.15,2013-07-21 11:43:00,
2013-07-21 06:45:00,66.7,62.0,29.95,SSE,167,0.0,0.0,85,0.00,,,0.00,46,Wunderground v.1.15,2013-07-21 11:45:00,
2013-07-21 06:46:00,66.7,62.4,29.95,SSE,167,0.0,0.0,86,0.00,,,0.00,47,Wunderground v.1.15,2013-07-21 11:46:00,
2013-07-21 06:48:00,66.8,62.5,29.95,SSE,167,0.0,0.0,86,0.00,,,0.00,53,Wunderground v.1.15,2013-07-21 11:48:00,
2013-07-21 06:49:00,66.8,62.5,29.95,SSE,167,0.0,0.0,86,0.00,,,0.00,54,Wunderground v.1.15,2013-07-21 11:49:00,
2013-07-21 06:53:00,66.9,62.9,29.95,SSE,167,0.0,0.0,87,0.00,,,0.00,62,Wunderground v.1.15,2013-07-21 11:53:00,
2013-07-21 06:55:00,67.0,63.0,29.95,SSE,167,0.0,0.0,87,0.00,,,0.00,67,Wunderground v.1.15,2013-07-21 11:55:00,
2013-07-21 06:57:00,67.1,63.1,29.95,SSE,167,0.0,0.0,87,0.00,,,0.00,69,Wunderground v.1.15,2013-07-21 11:57:00,
2013-07-21 06:58:00,67.1,63.1,29.95,SSE,167,0.0,0.0,87,0.00,,,0.00,70,Wunderground v.1.15,2013-07-21 11:58:00,
2013-07-21 07:00:00,67.3,63.3,29.95,SSE,167,0.0,0.0,87,0.00,,,0.00,74,Wunderground v.1.15,2013-07-21 12:00:00,
2013-07-21 07:03:00,67.4,63.4,29.95,SSE,167,0.0,4.0,87,0.00,,,0.00,79,Wunderground v.1.15,2013-07-21 12:03:00,
2013-07-21 07:05:00,67.5,63.5,29.95,SSE,167,0.0,4.0,87,0.00,,,0.00,79,Wunderground v.1.15,2013-07-21 12:05:00,
2013-07-21 07:06:00,67.5,63.5,29.95,SSE,167,0.0,4.0,87,0.00,,,0.00,79,Wunderground v.1.15,2013-07-21 12:06:00,
2013-07-21 07:07:00,67.6,63.6,29.94,SSE,167,0.0,4.0,87,0.00,,,0.00,79,Wunderground v.1.15,2013-07-21 12:07:00,
2013-07-21 07:12:00,67.9,63.9,29.94,SSE,167,0.0,0.0,87,0.00,,,0.00,83,Wunderground v.1.15,2013-07-21 12:12:00,
2013-07-21 07:13:00,68.0,64.0,29.94,SSE,167,0.0,0.0,87,0.00,,,0.00,84,Wunderground v.1.15,2013-07-21 12:13:00,
2013-07-21 07:14:00,68.0,64.0,29.94,SSE,167,0.0,0.0,87,0.00,,,0.00,86,Wunderground v.1.15,2013-07-21 12:14:00,
2013-07-21 07:19:00,68.4,64.4,29.94,SSE,167,0.0,2.0,87,0.00,,,0.00,93,Wunderground v.1.15,2013-07-21 12:19:00,
2013-07-21 07:21:00,68.7,64.3,29.94,SSE,167,0.0,1.0,86,0.00,,,0.00,97,Wunderground v.1.15,2013-07-21 12:21:00,
2013-07-21 07:23:00,68.9,64.5,29.94,SSE,167,0.0,2.0,86,0.00,,,0.00,98,Wunderground v.1.15,2013-07-21 12:23:00,
2013-07-21 07:25:00,69.0,64.3,29.94,SSE,167,1.0,2.0,85,0.00,,,0.00,102,Wunderground v.1.15,2013-07-21 12:25:00,
2013-07-21 07:28:00,69.2,64.5,29.94,SSE,167,1.0,2.0,85,0.00,,,0.00,107,Wunderground v.1.15,2013-07-21 12:28:00,
2013-07-21 07:29:00,69.3,64.6,29.94,SSE,167,1.0,2.0,85,0.00,,,0.00,109,Wunderground v.1.15,2013-07-21 12:29:00,
2013-07-21 07:30:00,69.4,64.7,29.93,SSE,167,1.0,1.0,85,0.00,,,0.00,113,Wunderground v.1.15,2013-07-21 12:30:00,
2013-07-21 07:32:00,69.5,64.8,29.93,SSE,167,1.0,1.0,85,0.00,,,0.00,120,Wunderground v.1.15,2013-07-21 12:32:00,
2013-07-21 07:34:00,69.6,64.9,29.93,SSE,167,0.0,1.0,85,0.00,,,0.00,206,Wunderground v.1.15,2013-07-21 12:34:00,
2013-07-21 07:36:00,69.8,65.1,29.94,SSE,167,0.0,1.0,85,0.00,,,0.00,181,Wunderground v.1.15,2013-07-21 12:36:00,
2013-07-21 07:39:00,70.0,65.3,29.94,SSE,167,0.0,2.0,85,0.00,,,0.00,163,Wunderground v.1.15,2013-07-21 12:39:00,
2013-07-21 07:40:00,70.1,65.4,29.94,SSE,167,0.0,0.0,85,0.00,,,0.00,165,Wunderground v.1.15,2013-07-21 12:40:00,
2013-07-21 07:41:00,70.2,65.5,29.94,SSE,167,0.0,1.0,85,0.00,,,0.00,171,Wunderground v.1.15,2013-07-21 12:41:00,
2013-07-21 07:42:00,70.3,65.6,29.94,SSE,167,1.0,1.0,85,0.00,,,0.00,162,Wunderground v.1.15,2013-07-21 12:42:00,
2013-07-21 07:46:00,70.6,65.5,29.94,SSE,167,1.0,2.0,84,0.00,,,0.00,237,Wunderground v.1.15,2013-07-21 12:46:00,
2013-07-21 07:47:00,70.7,65.6,29.94,SSE,167,1.0,2.0,84,0.00,,,0.00,237,Wunderground v.1.15,2013-07-21 12:47:00,
2013-07-21 07:49:00,70.8,65.7,29.94,SSE,167,1.0,2.0,84,0.00,,,0.00,248,Wunderground v.1.15,2013-07-21 12:49:00,
2013-07-21 07:52:00,71.1,65.7,29.94,SSE,167,1.0,1.0,83,0.00,,,0.00,278,Wunderground v.1.15,2013-07-21 12:52:00,
2013-07-21 07:53:00,71.2,65.8,29.94,SSE,167,1.0,2.0,83,0.00,,,0.00,278,Wunderground v.1.15,2013-07-21 12:53:00,
2013-07-21 07:54:00,71.3,65.9,29.94,SSE,167,1.0,2.0,83,0.00,,,0.00,322,Wunderground v.1.15,2013-07-21 12:54:00,
2013-07-21 07:56:00,71.5,65.7,29.94,SSE,167,1.0,2.0,82,0.00,,,0.00,369,Wunderground v.1.15,2013-07-21 12:56:00,
2013-07-21 07:58:00,71.8,66.0,29.94,SSE,167,1.0,2.0,82,0.00,,,0.00,359,Wunderground v.1.15,2013-07-21 12:58:00,
2013-07-21 07:59:00,71.9,66.1,29.94,SSE,167,1.0,2.0,82,0.00,,,0.00,352,Wunderground v.1.15,2013-07-21 12:59:00,
2013-07-21 08:00:00,72.1,65.9,29.94,SSE,167,1.0,1.0,81,0.00,,,0.00,360,Wunderground v.1.15,2013-07-21 13:00:00,
2013-07-21 08:03:00,72.5,66.3,29.94,SSE,167,1.0,2.0,81,0.00,,,0.00,388,Wunderground v.1.15,2013-07-21 13:03:00,
2013-07-21 08:04:00,72.6,66.4,29.94,SSE,167,1.0,2.0,81,0.00,,,0.00,364,Wunderground v.1.15,2013-07-21 13:04:00,
2013-07-21 08:05:00,72.9,66.7,29.94,East,95,1.0,4.0,81,0.00,,,0.00,357,Wunderground v.1.15,2013-07-21 13:05:00,
2013-07-21 08:06:00,73.0,66.8,29.94,East,94,1.0,5.0,81,0.00,,,0.00,339,Wunderground v.1.15,2013-07-21 13:06:00,
2013-07-21 08:07:00,73.1,66.6,29.94,East,94,1.0,5.0,80,0.00,,,0.00,401,Wunderground v.1.15,2013-07-21 13:07:00,
2013-07-21 08:11:00,73.7,66.8,29.93,East,94,1.0,1.0,79,0.00,,,0.00,255,Wunderground v.1.15,2013-07-21 13:11:00,
2013-07-21 08:12:00,73.8,66.5,29.93,East,94,2.0,2.0,78,0.00,,,0.00,225,Wunderground v.1.15,2013-07-21 13:12:00,
2013-07-21 08:15:00,74.0,66.0,29.94,East,94,1.0,2.0,76,0.00,,,0.00,202,Wunderground v.1.15,2013-07-21 13:15:00,
2013-07-21 08:17:00,74.1,66.0,29.94,East,94,1.0,2.0,76,0.00,,,0.00,206,Wunderground v.1.15,2013-07-21 13:17:00,
2013-07-21 08:19:00,74.2,66.1,29.94,East,94,1.0,2.0,76,0.00,,,0.00,227,Wunderground v.1.15,2013-07-21 13:19:00,
2013-07-21 08:20:00,74.3,66.2,29.94,East,94,0.0,0.0,76,0.00,,,0.00,250,Wunderground v.1.15,2013-07-21 13:20:00,
2013-07-21 08:23:00,74.5,66.4,29.93,East,94,0.0,1.0,76,0.00,,,0.00,204,Wunderground v.1.15,2013-07-21 13:23:00,
2013-07-21 08:25:00,74.6,66.5,29.93,East,94,0.0,1.0,76,0.00,,,0.00,197,Wunderground v.1.15,2013-07-21 13:25:00,
2013-07-21 08:26:00,74.6,66.5,29.94,East,94,0.0,1.0,76,0.00,,,0.00,195,Wunderground v.1.15,2013-07-21 13:26:00,
2013-07-21 08:27:00,74.6,66.1,29.94,East,94,0.0,1.0,75,0.00,,,0.00,192,Wunderground v.1.15,2013-07-21 13:27:00,
2013-07-21 08:31:00,74.8,66.3,29.94,East,94,0.0,1.0,75,0.00,,,0.00,181,Wunderground v.1.15,2013-07-21 13:31:00,
2013-07-21 08:33:00,74.8,66.3,29.94,East,94,0.0,1.0,75,0.00,,,0.00,179,Wunderground v.1.15,2013-07-21 13:33:00,
2013-07-21 08:34:00,74.8,66.3,29.94,East,94,0.0,1.0,75,0.00,,,0.00,181,Wunderground v.1.15,2013-07-21 13:34:00,
2013-07-21 08:39:00,74.9,66.8,29.94,East,94,1.0,1.0,76,0.00,,,0.00,197,Wunderground v.1.15,2013-07-21 13:39:00,
2013-07-21 08:41:00,75.0,66.9,29.94,East,94,1.0,1.0,76,0.00,,,0.00,192,Wunderground v.1.15,2013-07-21 13:41:00,
2013-07-21 08:42:00,74.9,66.4,29.94,East,94,1.0,1.0,75,0.00,,,0.00,192,Wunderground v.1.15,2013-07-21 13:42:00,
2013-07-21 08:45:00,75.0,66.5,29.95,East,94,0.0,1.0,75,0.00,,,0.00,192,Wunderground v.1.15,2013-07-21 13:45:00,
2013-07-21 08:46:00,75.0,66.9,29.95,East,94,0.0,1.0,76,0.00,,,0.00,190,Wunderground v.1.15,2013-07-21 13:46:00,
2013-07-21 08:48:00,75.1,67.0,29.95,East,94,0.0,1.0,76,0.00,,,0.00,188,Wunderground v.1.15,2013-07-21 13:48:00,
2013-07-21 08:51:00,75.1,66.6,29.95,East,94,0.0,0.0,75,0.00,,,0.00,218,Wunderground v.1.15,2013-07-21 13:51:00,
2013-07-21 08:52:00,75.2,66.7,29.95,East,94,0.0,1.0,75,0.00,,,0.00,227,Wunderground v.1.15,2013-07-21 13:52:00,
2013-07-21 08:53:00,75.2,66.7,29.95,East,94,0.0,1.0,75,0.00,,,0.00,232,Wunderground v.1.15,2013-07-21 13:53:00,
2013-07-21 08:57:00,75.4,67.3,29.95,East,94,0.0,1.0,76,0.00,,,0.00,230,Wunderground v.1.15,2013-07-21 13:57:00,
2013-07-21 08:58:00,75.4,67.3,29.95,East,94,0.0,1.0,76,0.00,,,0.00,227,Wunderground v.1.15,2013-07-21 13:58:00,
2013-07-21 09:00:00,75.5,67.4,29.96,East,94,0.0,0.0,76,0.00,,,0.00,230,Wunderground v.1.15,2013-07-21 14:00:00,
2013-07-21 09:02:00,75.6,67.5,29.96,East,94,0.0,4.0,76,0.00,,,0.00,230,Wunderground v.1.15,2013-07-21 14:02:00,
2013-07-21 09:04:00,75.7,67.2,29.96,East,94,0.0,4.0,75,0.00,,,0.00,271,Wunderground v.1.15,2013-07-21 14:04:00,
2013-07-21 09:08:00,75.9,67.4,29.96,East,94,0.0,4.0,75,0.00,,,0.00,220,Wunderground v.1.15,2013-07-21 14:08:00,
2013-07-21 09:09:00,75.9,67.4,29.96,East,94,0.0,4.0,75,0.00,,,0.00,214,Wunderground v.1.15,2013-07-21 14:09:00,
2013-07-21 09:11:00,76.1,67.2,29.96,East,94,0.0,1.0,74,0.00,,,0.00,229,Wunderground v.1.15,2013-07-21 14:11:00,
2013-07-21 09:14:00,76.2,67.7,29.96,East,94,0.0,1.0,75,0.00,,,0.00,301,Wunderground v.1.15,2013-07-21 14:14:00,
2013-07-21 09:15:00,76.3,67.4,29.96,East,94,0.0,1.0,74,0.00,,,0.00,318,Wunderground v.1.15,2013-07-21 14:15:00,
2013-07-21 09:16:00,76.3,67.4,29.96,East,94,0.0,1.0,74,0.00,,,0.00,318,Wunderground v.1.15,2013-07-21 14:16:00,
2013-07-21 09:18:00,76.4,66.7,29.96,East,94,0.0,1.0,72,0.00,,,0.00,301,Wunderground v.1.15,2013-07-21 14:18:00,
2013-07-21 09:19:00,76.4,66.7,29.96,East,94,0.0,1.0,72,0.00,,,0.00,267,Wunderground v.1.15,2013-07-21 14:19:00,
2013-07-21 09:22:00,76.7,67.0,29.96,East,94,0.0,1.0,72,0.00,,,0.00,223,Wunderground v.1.15,2013-07-21 14:22:00,
2013-07-21 09:23:00,76.8,67.5,29.96,East,94,0.0,2.0,73,0.00,,,0.00,227,Wunderground v.1.15,2013-07-21 14:23:00,
2013-07-21 09:25:00,76.9,68.4,29.96,East,94,1.0,4.0,75,0.00,,,0.00,236,Wunderground v.1.15,2013-07-21 14:25:00,
2013-07-21 09:27:00,76.9,68.0,29.96,East,94,2.0,4.0,74,0.00,,,0.00,243,Wunderground v.1.15,2013-07-21 14:27:00,
2013-07-21 09:30:00,76.9,68.4,29.96,East,94,2.0,2.0,75,0.00,,,0.00,248,Wunderground v.1.15,2013-07-21 14:30:00,
2013-07-21 09:32:00,76.8,67.9,29.96,East,94,3.0,4.0,74,0.00,,,0.00,290,Wunderground v.1.15,2013-07-21 14:32:00,
2013-07-21 09:33:00,76.8,67.9,29.96,East,94,3.0,4.0,74,0.00,,,0.00,311,Wunderground v.1.15,2013-07-21 14:33:00,
2013-07-21 09:35:00,76.8,67.9,29.96,ENE,66,3.0,5.0,74,0.00,,,0.00,323,Wunderground v.1.15,2013-07-21 14:35:00,
2013-07-21 09:38:00,76.9,68.0,29.96,ENE,66,3.0,5.0,74,0.00,,,0.00,258,Wunderground v.1.15,2013-07-21 14:38:00,
2013-07-21 09:40:00,77.0,68.5,29.96,ENE,64,3.0,3.0,75,0.00,,,0.00,229,Wunderground v.1.15,2013-07-21 14:40:00,
2013-07-21 09:41:00,77.0,68.9,29.96,ENE,64,3.0,3.0,76,0.00,,,0.00,193,Wunderground v.1.15,2013-07-21 14:41:00,
2013-07-21 09:42:00,77.0,68.5,29.96,ENE,63,3.0,3.0,75,0.00,,,0.00,188,Wunderground v.1.15,2013-07-21 14:42:00,
2013-07-21 09:45:00,76.9,68.0,29.96,ENE,63,3.0,5.0,74,0.00,,,0.00,241,Wunderground v.1.15,2013-07-21 14:45:00,
2013-07-21 09:46:00,76.8,68.3,29.96,ENE,63,3.0,5.0,75,0.00,,,0.00,255,Wunderground v.1.15,2013-07-21 14:46:00,
2013-07-21 09:47:00,76.7,68.2,29.96,ENE,63,3.0,5.0,75,0.00,,,0.00,267,Wunderground v.1.15,2013-07-21 14:47:00,
2013-07-21 09:49:00,76.6,68.1,29.96,ENE,63,3.0,5.0,75,0.00,,,0.00,278,Wunderground v.1.15,2013-07-21 14:49:00,
2013-07-21 09:52:00,76.6,68.5,29.96,ENE,63,3.0,3.0,76,0.00,,,0.00,216,Wunderground v.1.15,2013-07-21 14:52:00,
2013-07-21 09:55:00,76.5,68.4,29.96,ENE,63,3.0,3.0,76,0.00,,,0.00,292,Wunderground v.1.15,2013-07-21 14:55:00,
2013-07-21 09:56:00,76.5,68.4,29.96,ENE,63,3.0,3.0,76,0.00,,,0.00,371,Wunderground v.1.15,2013-07-21 14:56:00,
2013-07-21 09:57:00,76.5,68.4,29.96,ENE,63,3.0,3.0,76,0.00,,,0.00,371,Wunderground v.1.15,2013-07-21 14:57:00,
2013-07-21 10:02:00,76.7,68.2,29.96,NE,53,3.0,5.0,75,0.00,,,0.00,346,Wunderground v.1.15,2013-07-21 15:02:00,
2013-07-21 10:03:00,76.7,68.2,29.96,NE,53,3.0,5.0,75,0.00,,,0.00,341,Wunderground v.1.15,2013-07-21 15:03:00,
2013-07-21 10:05:00,76.8,68.3,29.96,NE,53,3.0,5.0,75,0.00,,,0.00,362,Wunderground v.1.15,2013-07-21 15:05:00,
2013-07-21 10:07:00,76.8,67.9,29.96,NE,47,3.0,5.0,74,0.00,,,0.00,385,Wunderground v.1.15,2013-07-21 15:07:00,
2013-07-21 10:08:00,76.9,68.0,29.96,NE,47,3.0,5.0,74,0.00,,,0.00,362,Wunderground v.1.15,2013-07-21 15:08:00,
2013-07-21 10:10:00,76.9,68.0,29.96,NE,40,3.0,4.0,74,0.00,,,0.00,288,Wunderground v.1.15,2013-07-21 15:10:00,
2013-07-21 10:11:00,76.9,68.0,29.96,NE,40,3.0,4.0,74,0.00,,,0.00,246,Wunderground v.1.15,2013-07-21 15:11:00,
2013-07-21 10:13:00,77.0,68.1,29.96,NNE,31,3.0,5.0,74,0.00,,,0.00,183,Wunderground v.1.15,2013-07-21 15:13:00,
2013-07-21 10:14:00,76.9,68.0,29.96,NNE,31,3.0,5.0,74,0.00,,,0.00,176,Wunderground v.1.15,2013-07-21 15:14:00,
2013-07-21 10:16:00,76.9,68.0,29.96,NNE,31,3.0,5.0,74,0.00,,,0.00,165,Wunderground v.1.15,2013-07-21 15:16:00,
2013-07-21 10:17:00,76.8,67.9,29.96,NNE,31,3.0,5.0,74,0.00,,,0.00,156,Wunderground v.1.15,2013-07-21 15:17:00,
2013-07-21 10:19:00,76.7,67.8,29.96,ENE,60,3.0,5.0,74,0.00,,,0.00,125,Wunderground v.1.15,2013-07-21 15:19:00,
2013-07-21 10:21:00,76.7,67.8,29.96,ENE,59,3.0,3.0,74,0.00,,,0.00,107,Wunderground v.1.15,2013-07-21 15:21:00,
2013-07-21 10:22:00,76.7,68.2,29.96,ENE,59,3.0,3.0,75,0.00,,,0.00,95,Wunderground v.1.15,2013-07-21 15:22:00,
2013-07-21 10:23:00,76.6,68.1,29.97,ENE,59,3.0,3.0,75,0.00,,,0.00,83,Wunderground v.1.15,2013-07-21 15:23:00,
2013-07-21 10:26:00,76.6,68.1,29.97,North,360,3.0,4.0,75,0.00,,,0.00,46,Wunderground v.1.15,2013-07-21 15:26:00,
2013-07-21 10:28:00,76.5,67.6,29.98,North,360,3.0,4.0,74,0.00,,,0.00,37,Wunderground v.1.15,2013-07-21 15:28:00,
2013-07-21 10:29:00,76.5,67.6,29.98,North,360,3.0,4.0,74,0.00,,,0.00,35,Wunderground v.1.15,2013-07-21 15:29:00,
2013-07-21 10:33:00,76.4,67.9,29.97,NNE,26,3.0,3.0,75,0.00,,,0.01,35,Wunderground v.1.15,2013-07-21 15:33:00,
2013-07-21 10:35:00,76.0,68.3,29.97,ENE,68,3.0,5.0,77,0.56,,,0.03,39,Wunderground v.1.15,2013-07-21 15:35:00,
2013-07-21 10:36:00,75.8,68.1,29.96,ENE,63,3.0,5.0,77,0.44,,,0.03,40,Wunderground v.1.15,2013-07-21 15:36:00,
2013-07-21 10:39:00,75.1,68.1,29.96,ENE,63,3.0,5.0,79,0.29,,,0.05,37,Wunderground v.1.15,2013-07-21 15:39:00,
2013-07-21 10:40:00,75.0,68.4,29.96,ENE,63,3.0,3.0,80,0.29,,,0.05,37,Wunderground v.1.15,2013-07-21 15:40:00,
2013-07-21 10:41:00,74.8,68.6,29.96,ENE,63,3.0,4.0,81,0.31,,,0.06,42,Wunderground v.1.15,2013-07-21 15:41:00,
2013-07-21 10:42:00,74.6,68.4,29.96,ENE,63,3.0,4.0,81,0.30,,,0.06,44,Wunderground v.1.15,2013-07-21 15:42:00,
2013-07-21 10:44:00,74.3,68.4,29.96,ENE,63,3.0,4.0,82,0.15,,,0.06,46,Wunderground v.1.15,2013-07-21 15:44:00,
2013-07-21 10:47:00,74.1,69.0,29.95,ENE,63,2.0,4.0,84,0.08,,,0.06,62,Wunderground v.1.15,2013-07-21 15:47:00,
2013-07-21 10:49:00,74.0,68.9,29.95,ENE,64,2.0,4.0,84,0.07,,,0.06,74,Wunderground v.1.15,2013-07-21 15:49:00,
2013-07-21 10:50:00,73.9,68.8,29.95,East,101,2.0,2.0,84,0.06,,,0.06,81,Wunderground v.1.15,2013-07-21 15:50:00,
2013-07-21 10:52:00,73.8,68.7,29.95,ENE,71,2.0,2.0,84,0.05,,,0.06,91,Wunderground v.1.15,2013-07-21 15:52:00,
2013-07-21 10:54:00,73.6,68.5,29.95,ENE,71,2.0,4.0,84,0.04,,,0.06,97,Wunderground v.1.15,2013-07-21 15:54:00,
2013-07-21 10:57:00,73.4,68.6,29.96,ENE,71,2.0,4.0,85,0.00,,,0.06,113,Wunderground v.1.15,2013-07-21 15:57:00,
2013-07-21 11:01:00,73.4,69.0,29.96,NNW,347,3.0,4.0,86,0.00,,,0.06,206,Wunderground v.1.15,2013-07-21 16:01:00,
2013-07-21 11:02:00,73.4,69.0,29.96,NNW,347,3.0,5.0,86,0.00,,,0.06,244,Wunderground v.1.15,2013-07-21 16:02:00,
2013-07-21 11:03:00,73.4,69.3,29.96,NNW,347,3.0,5.0,87,0.00,,,0.06,288,Wunderground v.1.15,2013-07-21 16:03:00,
2013-07-21 11:04:00,73.5,69.4,29.96,NNW,347,3.0,5.0,87,0.00,,,0.06,288,Wunderground v.1.15,2013-07-21 16:04:00,
2013-07-21 11:09:00,73.6,69.5,29.96,NNW,347,4.0,5.0,87,0.00,,,0.06,329,Wunderground v.1.15,2013-07-21 16:09:00,
2013-07-21 11:10:00,73.7,69.9,29.97,NNW,347,4.0,4.0,88,0.00,,,0.06,325,Wunderground v.1.15,2013-07-21 16:10:00,
2013-07-21 11:11:00,73.8,70.0,29.97,NNW,347,3.0,4.0,88,0.00,,,0.06,325,Wunderground v.1.15,2013-07-21 16:11:00,
2013-07-21 11:13:00,73.9,70.1,29.97,NNW,348,3.0,4.0,88,0.00,,,0.06,357,Wunderground v.1.15,2013-07-21 16:13:00,
2013-07-21 11:16:00,74.0,70.2,29.96,North,350,3.0,4.0,88,0.00,,,0.06,311,Wunderground v.1.15,2013-07-21 16:16:00,
2013-07-21 11:18:00,74.0,70.2,29.97,NE,39,3.0,4.0,88,0.00,,,0.06,299,Wunderground v.1.15,2013-07-21 16:18:00,
2013-07-21 11:20:00,74.0,69.9,29.97,ENE,65,3.0,3.0,87,0.00,,,0.06,345,Wunderground v.1.15,2013-07-21 16:20:00,
2013-07-21 11:21:00,74.0,69.9,29.97,NE,48,3.0,4.0,87,0.00,,,0.06,292,Wunderground v.1.15,2013-07-21 16:21:00,
2013-07-21 11:22:00,74.1,70.0,29.97,NE,49,3.0,4.0,87,0.00,,,0.06,343,Wunderground v.1.15,2013-07-21 16:22:00,
2013-07-21 11:24:00,74.2,70.1,29.96,ENE,66,3.0,4.0,87,0.00,,,0.06,271,Wunderground v.1.15,2013-07-21 16:24:00,
2013-07-21 11:28:00,74.2,70.1,29.96,East,84,4.0,4.0,87,0.00,,,0.06,371,Wunderground v.1.15,2013-07-21 16:28:00,
2013-07-21 11:29:00,74.3,69.8,29.96,East,84,3.0,4.0,86,0.00,,,0.06,371,Wunderground v.1.15,2013-07-21 16:29:00,
2013-07-21 11:33:00,74.4,69.9,29.97,East,83,2.0,4.0,86,0.00,,,0.06,134,Wunderground v.1.15,2013-07-21 16:33:00,
2013-07-21 11:34:00,74.5,70.0,29.96,East,86,2.0,4.0,86,0.00,,,0.06,142,Wunderground v.1.15,2013-07-21 16:34:00,
2013-07-21 11:39:00,74.7,70.2,29.96,ESE,119,1.0,4.0,86,0.00,,,0.07,162,Wunderground v.1.15,2013-07-21 16:39:00,
2013-07-21 11:40:00,74.7,70.2,29.96,ESE,103,1.0,4.0,86,0.00,,,0.07,169,Wunderground v.1.15,2013-07-21 16:40:00,
2013-07-21 11:41:00,74.6,70.1,29.96,ESE,108,2.0,4.0,86,0.00,,,0.07,176,Wunderground v.1.15,2013-07-21 16:41:00,
2013-07-21 11:43:00,74.6,69.8,29.96,ESE,107,2.0,4.0,85,0.00,,,0.07,169,Wunderground v.1.15,2013-07-21 16:43:00,
2013-07-21 11:46:00,74.6,70.1,29.96,ESE,107,2.0,4.0,86,0.00,,,0.07,174,Wunderground v.1.15,2013-07-21 16:46:00,
2013-07-21 11:47:00,74.6,70.1,29.96,ENE,68,2.0,4.0,86,0.00,,,0.07,167,Wunderground v.1.15,2013-07-21 16:47:00,
2013-07-21 11:48:00,74.6,70.1,29.95,ESE,105,2.0,4.0,86,0.00,,,0.07,163,Wunderground v.1.15,2013-07-21 16:48:00,
2013-07-21 11:49:00,74.6,70.1,29.95,ENE,78,2.0,4.0,86,0.00,,,0.07,162,Wunderground v.1.15,2013-07-21 16:49:00,
2013-07-21 11:53:00,74.5,70.0,29.95,East,101,2.0,5.0,86,0.00,,,0.07,153,Wunderground v.1.15,2013-07-21 16:53:00,
2013-07-21 11:54:00,74.4,69.9,29.96,East,100,2.0,5.0,86,0.00,,,0.07,151,Wunderground v.1.15,2013-07-21 16:54:00,
2013-07-21 11:55:00,74.4,69.9,29.96,East,101,2.0,5.0,86,0.00,,,0.07,148,Wunderground v.1.15,2013-07-21 16:55:00,
2013-07-21 11:57:00,74.4,69.9,29.96,ESE,119,2.0,5.0,86,0.00,,,0.07,137,Wunderground v.1.15,2013-07-21 16:57:00,
2013-07-21 11:59:00,74.4,69.9,29.96,ESE,117,2.0,5.0,86,0.00,,,0.07,107,Wunderground v.1.15,2013-07-21 16:59:00,
2013-07-21 12:00:00,74.4,69.9,29.96,ESE,117,2.0,2.0,86,0.00,,,0.07,95,Wunderground v.1.15,2013-07-21 17:00:00,
2013-07-21 12:01:00,74.4,69.9,29.96,ESE,117,2.0,6.0,86,0.00,,,0.07,86,Wunderground v.1.15,2013-07-21 17:01:00,
2013-07-21 12:02:00,74.5,70.0,29.96,ESE,117,1.0,6.0,86,0.00,,,0.07,81,Wunderground v.1.15,2013-07-21 17:02:00,
2013-07-21 12:03:00,74.5,70.0,29.96,ESE,117,1.0,6.0,86,0.00,,,0.07,76,Wunderground v.1.15,2013-07-21 17:03:00,
2013-07-21 12:06:00,74.6,70.1,29.96,ESE,117,1.0,6.0,86,0.00,,,0.07,74,Wunderground v.1.15,2013-07-21 17:06:00,
2013-07-21 12:07:00,74.6,70.1,29.96,ESE,117,1.0,6.0,86,0.00,,,0.07,77,Wunderground v.1.15,2013-07-21 17:07:00,
2013-07-21 12:08:00,74.6,70.1,29.96,SE,140,1.0,6.0,86,0.00,,,0.07,77,Wunderground v.1.15,2013-07-21 17:08:00,
2013-07-21 12:12:00,74.6,70.1,29.96,ENE,72,1.0,1.0,86,0.00,,,0.07,65,Wunderground v.1.15,2013-07-21 17:12:00,
2013-07-21 12:13:00,74.6,70.1,29.96,ENE,72,1.0,1.0,86,0.00,,,0.07,63,Wunderground v.1.15,2013-07-21 17:13:00,
2013-07-21 12:17:00,74.6,70.1,29.96,ENE,72,1.0,1.0,86,0.00,,,0.07,100,Wunderground v.1.15,2013-07-21 17:17:00,
2013-07-21 12:18:00,74.6,70.1,29.96,ENE,72,1.0,1.0,86,0.00,,,0.07,114,Wunderground v.1.15,2013-07-21 17:18:00,
2013-07-21 12:19:00,74.6,70.5,29.96,ENE,72,1.0,1.0,87,0.00,,,0.07,127,Wunderground v.1.15,2013-07-21 17:19:00,
2013-07-21 12:21:00,74.7,70.6,29.96,SSW,202,1.0,2.0,87,0.00,,,0.07,162,Wunderground v.1.15,2013-07-21 17:21:00,
2013-07-21 12:23:00,74.7,70.6,29.96,SSW,202,1.0,3.0,87,0.00,,,0.07,181,Wunderground v.1.15,2013-07-21 17:23:00,
2013-07-21 12:24:00,74.7,70.6,29.96,SSW,196,1.0,5.0,87,0.00,,,0.07,190,Wunderground v.1.15,2013-07-21 17:24:00,
2013-07-21 12:27:00,74.7,70.6,29.96,South,189,2.0,6.0,87,0.00,,,0.08,207,Wunderground v.1.15,2013-07-21 17:27:00,
2013-07-21 12:31:00,74.5,70.0,29.96,South,186,4.0,6.0,86,0.14,,,0.09,200,Wunderground v.1.15,2013-07-21 17:31:00,
2013-07-21 12:32:00,74.3,69.5,29.96,South,179,4.0,8.0,85,0.14,,,0.09,195,Wunderground v.1.15,2013-07-21 17:32:00,
2013-07-21 12:33:00,74.3,69.5,29.96,South,186,5.0,8.0,85,0.14,,,0.09,195,Wunderground v.1.15,2013-07-21 17:33:00,
2013-07-21 12:37:00,73.6,67.8,29.96,South,175,5.0,8.0,82,0.07,,,0.09,171,Wunderground v.1.15,2013-07-21 17:37:00,
2013-07-21 12:38:00,73.5,67.7,29.96,ENE,62,5.0,8.0,82,0.07,,,0.09,165,Wunderground v.1.15,2013-07-21 17:38:00,
2013-07-21 12:42:00,73.3,67.8,29.96,South,173,4.0,4.0,83,0.05,,,0.09,132,Wunderground v.1.15,2013-07-21 17:42:00,
2013-07-21 12:43:00,73.3,67.8,29.96,South,189,3.0,4.0,83,0.04,,,0.09,123,Wunderground v.1.15,2013-07-21 17:43:00,
2013-07-21 12:44:00,73.3,68.2,29.96,South,188,3.0,4.0,84,0.04,,,0.09,118,Wunderground v.1.15,2013-07-21 17:44:00,
2013-07-21 12:46:00,73.3,68.2,29.96,SSW,196,2.0,5.0,84,0.00,,,0.09,109,Wunderground v.1.15,2013-07-21 17:46:00,
2013-07-21 12:47:00,73.2,67.7,29.96,South,171,2.0,5.0,83,0.00,,,0.09,109,Wunderground v.1.15,2013-07-21 17:47:00,
2013-07-21 12:48:00,73.2,67.7,29.96,South,175,2.0,5.0,83,0.00,,,0.09,114,Wunderground v.1.15,2013-07-21 17:48:00,
2013-07-21 12:52:00,73.0,67.5,29.95,SW,225,2.0,3.0,83,0.00,,,0.09,132,Wunderground v.1.15,2013-07-21 17:52:00,
2013-07-21 12:53:00,73.0,67.5,29.95,South,179,2.0,4.0,83,0.00,,,0.09,135,Wunderground v.1.15,2013-07-21 17:53:00,
2013-07-21 12:54:00,73.0,67.5,29.95,East,87,2.0,4.0,83,0.00,,,0.09,141,Wunderground v.1.15,2013-07-21 17:54:00,
2013-07-21 12:55:00,73.0,67.9,29.95,East,87,2.0,4.0,84,0.00,,,0.09,146,Wunderground v.1.15,2013-07-21 17:55:00,
2013-07-21 12:56:00,73.0,67.9,29.95,East,87,2.0,4.0,84,0.00,,,0.09,151,Wunderground v.1.15,2013-07-21 17:56:00,
2013-07-21 12:58:00,73.1,68.0,29.95,East,99,2.0,4.0,84,0.00,,,0.09,171,Wunderground v.1.15,2013-07-21 17:58:00,
2013-07-21 12:59:00,73.1,68.3,29.95,ESE,119,2.0,4.0,85,0.00,,,0.09,176,Wunderground v.1.15,2013-07-21 17:59:00,
2013-07-21 13:01:00,73.1,68.3,29.95,East,93,2.0,6.0,85,0.00,,,0.09,179,Wunderground v.1.15,2013-07-21 18:01:00,
2013-07-21 13:02:00,73.1,68.3,29.95,East,93,1.0,6.0,85,0.00,,,0.09,174,Wunderground v.1.15,2013-07-21 18:02:00,
2013-07-21 13:05:00,73.2,68.4,29.95,ESE,113,1.0,6.0,85,0.00,,,0.09,171,Wunderground v.1.15,2013-07-21 18:05:00,
2013-07-21 13:07:00,73.2,68.4,29.95,ESE,113,1.0,6.0,85,0.00,,,0.09,167,Wunderground v.1.15,2013-07-21 18:07:00,
2013-07-21 13:08:00,73.1,68.3,29.95,East,83,1.0,6.0,85,0.00,,,0.09,167,Wunderground v.1.15,2013-07-21 18:08:00,
2013-07-21 13:09:00,73.1,68.3,29.95,East,95,2.0,6.0,85,0.00,,,0.09,165,Wunderground v.1.15,2013-07-21 18:09:00,
2013-07-21 13:13:00,73.1,68.3,29.94,ESE,105,2.0,4.0,85,0.00,,,0.09,153,Wunderground v.1.15,2013-07-21 18:13:00,
2013-07-21 13:15:00,73.1,68.3,29.94,East,84,2.0,4.0,85,0.00,,,0.09,165,Wunderground v.1.15,2013-07-21 18:15:00,
2013-07-21 13:16:00,73.1,68.3,29.94,East,84,2.0,4.0,85,0.00,,,0.09,172,Wunderground v.1.15,2013-07-21 18:16:00,
2013-07-21 13:17:00,73.1,68.3,29.94,East,84,2.0,4.0,85,0.00,,,0.09,185,Wunderground v.1.15,2013-07-21 18:17:00,
2013-07-21 13:20:00,73.1,68.3,29.94,East,90,1.0,4.0,85,0.00,,,0.09,223,Wunderground v.1.15,2013-07-21 18:20:00,
2013-07-21 13:21:00,73.1,68.3,29.94,East,90,2.0,4.0,85,0.00,,,0.09,218,Wunderground v.1.15,2013-07-21 18:21:00,
2013-07-21 13:22:00,73.0,68.2,29.94,East,90,2.0,4.0,85,0.00,,,0.09,241,Wunderground v.1.15,2013-07-21 18:22:00,
2013-07-21 13:26:00,73.1,68.3,29.94,East,90,1.0,4.0,85,0.00,,,0.09,206,Wunderground v.1.15,2013-07-21 18:26:00,
2013-07-21 13:27:00,73.2,68.1,29.94,South,187,1.0,4.0,84,0.00,,,0.09,214,Wunderground v.1.15,2013-07-21 18:27:00,
2013-07-21 13:28:00,73.2,68.1,29.94,South,187,1.0,4.0,84,0.00,,,0.09,211,Wunderground v.1.15,2013-07-21 18:28:00,
2013-07-21 13:30:00,73.2,68.1,29.94,South,173,2.0,2.0,84,0.00,,,0.09,204,Wunderground v.1.15,2013-07-21 18:30:00,
2013-07-21 13:32:00,73.3,68.2,29.94,SSE,157,2.0,2.0,84,0.00,,,0.09,207,Wunderground v.1.15,2013-07-21 18:32:00,
2013-07-21 13:33:00,73.3,68.2,29.94,SSE,157,2.0,4.0,84,0.00,,,0.09,207,Wunderground v.1.15,2013-07-21 18:33:00,
2013-07-21 13:36:00,73.4,68.3,29.94,SSW,193,2.0,5.0,84,0.00,,,0.09,225,Wunderground v.1.15,2013-07-21 18:36:00,
2013-07-21 13:37:00,73.4,68.3,29.93,SSW,202,2.0,5.0,84,0.00,,,0.09,232,Wunderground v.1.15,2013-07-21 18:37:00,
2013-07-21 13:39:00,73.5,68.4,29.94,SSE,152,2.0,5.0,84,0.00,,,0.09,278,Wunderground v.1.15,2013-07-21 18:39:00,
2013-07-21 13:40:00,73.5,68.4,29.94,SSE,152,2.0,2.0,84,0.00,,,0.09,299,Wunderground v.1.15,2013-07-21 18:40:00,
2013-07-21 13:41:00,73.6,68.5,29.94,SSE,152,2.0,2.0,84,0.00,,,0.09,290,Wunderground v.1.15,2013-07-21 18:41:00,
2013-07-21 13:43:00,73.7,68.6,29.94,SSE,152,2.0,4.0,84,0.00,,,0.09,336,Wunderground v.1.15,2013-07-21 18:43:00,
2013-07-21 13:44:00,73.7,68.6,29.94,SSE,152,1.0,4.0,84,0.00,,,0.09,338,Wunderground v.1.15,2013-07-21 18:44:00,
2013-07-21 13:45:00,73.8,68.7,29.94,South,169,2.0,4.0,84,0.00,,,0.09,360,Wunderground v.1.15,2013-07-21 18:45:00,
2013-07-21 13:46:00,73.8,68.7,29.94,SSW,207,1.0,4.0,84,0.00,,,0.09,376,Wunderground v.1.15,2013-07-21 18:46:00,
2013-07-21 13:49:00,73.9,68.8,29.94,South,182,2.0,4.0,84,0.00,,,0.09,367,Wunderground v.1.15,2013-07-21 18:49:00,
2013-07-21 13:51:00,74.0,68.9,29.94,SE,126,2.0,3.0,84,0.00,,,0.09,362,Wunderground v.1.15,2013-07-21 18:51:00,
2013-07-21 13:52:00,74.0,68.9,29.94,South,180,2.0,3.0,84,0.00,,,0.09,390,Wunderground v.1.15,2013-07-21 18:52:00,
2013-07-21 13:53:00,74.1,69.0,29.94,South,170,2.0,3.0,84,0.00,,,0.09,399,Wunderground v.1.15,2013-07-21 18:53:00,
2013-07-21 13:55:00,74.2,68.7,29.94,East,90,2.0,3.0,83,0.00,,,0.09,468,Wunderground v.1.15,2013-07-21 18:55:00,
2013-07-21 13:56:00,74.3,68.8,29.94,SSE,160,2.0,4.0,83,0.00,,,0.09,457,Wunderground v.1.15,2013-07-21 18:56:00,
2013-07-21 13:57:00,74.3,68.8,29.94,South,181,2.0,4.0,83,0.00,,,0.09,413,Wunderground v.1.15,2013-07-21 18:57:00,
2013-07-21 14:00:00,74.6,69.1,29.94,ENE,78,2.0,2.0,83,0.00,,,0.09,613,Wunderground v.1.15,2013-07-21 19:00:00,
2013-07-21 14:01:00,74.7,69.2,29.94,ESE,122,2.0,11.0,83,0.00,,,0.09,664,Wunderground v.1.15,2013-07-21 19:01:00,
2013-07-21 14:04:00,74.9,69.4,29.94,SSE,152,1.0,11.0,83,0.00,,,0.09,635,Wunderground v.1.15,2013-07-21 19:04:00,
2013-07-21 14:05:00,75.0,69.1,29.94,South,184,2.0,11.0,82,0.00,,,0.09,591,Wunderground v.1.15,2013-07-21 19:05:00,
2013-07-21 14:07:00,75.1,69.2,29.94,East,84,2.0,11.0,82,0.00,,,0.09,557,Wunderground v.1.15,2013-07-21 19:07:00,
2013-07-21 14:10:00,75.1,68.5,29.94,ESE,120,3.0,3.0,80,0.00,,,0.09,557,Wunderground v.1.15,2013-07-21 19:10:00,
2013-07-21 14:11:00,75.2,69.0,29.94,SSW,210,3.0,3.0,81,0.00,,,0.09,548,Wunderground v.1.15,2013-07-21 19:11:00,
2013-07-21 14:12:00,75.2,68.6,29.94,SE,129,3.0,6.0,80,0.00,,,0.09,548,Wunderground v.1.15,2013-07-21 19:12:00,
2013-07-21 14:14:00,75.5,69.3,29.94,NE,51,3.0,6.0,81,0.00,,,0.09,761,Wunderground v.1.15,2013-07-21 19:14:00,
2013-07-21 14:16:00,75.7,69.5,29.94,ENE,73,3.0,6.0,81,0.00,,,0.09,761,Wunderground v.1.15,2013-07-21 19:16:00,
2013-07-21 14:18:00,75.9,69.3,29.94,SSW,194,3.0,6.0,80,0.00,,,0.09,663,Wunderground v.1.15,2013-07-21 19:18:00,
2013-07-21 14:20:00,76.1,69.5,29.94,ESE,115,3.0,5.0,80,0.00,,,0.09,798,Wunderground v.1.15,2013-07-21 19:20:00,
2013-07-21 14:22:00,76.3,69.3,29.94,ENE,74,3.0,7.0,79,0.00,,,0.09,814,Wunderground v.1.15,2013-07-21 19:22:00,
2013-07-21 14:23:00,76.4,69.4,29.94,East,87,3.0,7.0,79,0.00,,,0.09,814,Wunderground v.1.15,2013-07-21 19:23:00,
2013-07-21 14:24:00,76.4,69.4,29.94,SSE,153,3.0,7.0,79,0.00,,,0.09,814,Wunderground v.1.15,2013-07-21 19:24:00,
2013-07-21 14:26:00,76.7,69.7,29.94,SSW,206,3.0,7.0,79,0.00,,,0.09,814,Wunderground v.1.15,2013-07-21 19:26:00,
2013-07-21 14:28:00,76.9,69.5,29.94,South,179,3.0,7.0,78,0.00,,,0.09,814,Wunderground v.1.15,2013-07-21 19:28:00,
2013-07-21 14:29:00,77.1,70.1,29.94,South,182,3.0,7.0,79,0.00,,,0.09,814,Wunderground v.1.15,2013-07-21 19:29:00,
2013-07-21 14:30:00,77.2,69.8,29.94,SSW,207,3.0,8.0,78,0.00,,,0.09,814,Wunderground v.1.15,2013-07-21 19:30:00,
2013-07-21 14:31:00,77.3,69.5,29.94,SSW,194,3.0,8.0,77,0.00,,,0.09,814,Wunderground v.1.15,2013-07-21 19:31:00,
2013-07-21 14:32:00,77.4,69.6,29.94,SSW,192,3.0,8.0,77,0.00,,,0.09,443,Wunderground v.1.15,2013-07-21 19:32:00,
2013-07-21 14:34:00,77.5,69.3,29.94,SW,215,4.0,8.0,76,0.00,,,0.09,327,Wunderground v.1.15,2013-07-21 19:34:00,
2013-07-21 14:36:00,77.4,67.7,29.94,SSW,201,4.0,8.0,72,0.00,,,0.09,304,Wunderground v.1.15,2013-07-21 19:36:00,
2013-07-21 14:37:00,77.4,68.1,29.93,SW,228,4.0,8.0,73,0.00,,,0.09,315,Wunderground v.1.15,2013-07-21 19:37:00,
2013-07-21 14:38:00,77.4,68.1,29.93,SSW,208,4.0,8.0,73,0.00,,,0.09,323,Wunderground v.1.15,2013-07-21 19:38:00,
2013-07-21 14:41:00,77.4,68.5,29.94,South,178,4.0,4.0,74,0.00,,,0.09,332,Wunderground v.1.15,2013-07-21 19:41:00,
2013-07-21 14:42:00,77.4,68.5,29.94,South,182,4.0,5.0,74,0.00,,,0.09,339,Wunderground v.1.15,2013-07-21 19:42:00,
2013-07-21 14:44:00,77.3,68.4,29.94,NE,51,4.0,5.0,74,0.00,,,0.09,392,Wunderground v.1.15,2013-07-21 19:44:00,
2013-07-21 14:47:00,77.3,68.4,29.94,ESE,113,4.0,5.0,74,0.00,,,0.09,485,Wunderground v.1.15,2013-07-21 19:47:00,
2013-07-21 14:48:00,77.3,68.4,29.94,SSW,202,4.0,5.0,74,0.00,,,0.09,462,Wunderground v.1.15,2013-07-21 19:48:00,
2013-07-21 14:49:00,77.4,68.5,29.94,SSW,204,4.0,5.0,74,0.00,,,0.09,490,Wunderground v.1.15,2013-07-21 19:49:00,
2013-07-21 14:50:00,77.4,68.5,29.94,South,174,4.0,7.0,74,0.00,,,0.09,814,Wunderground v.1.15,2013-07-21 19:50:00,
2013-07-21 14:54:00,77.6,68.3,29.94,SSW,201,5.0,11.0,73,0.00,,,0.09,1011,Wunderground v.1.15,2013-07-21 19:54:00,
2013-07-21 14:56:00,77.9,69.3,29.94,South,179,5.0,11.0,75,0.00,,,0.09,1083,Wunderground v.1.15,2013-07-21 19:56:00,
2013-07-21 14:58:00,78.1,69.1,29.94,East,82,5.0,11.0,74,0.00,,,0.09,1083,Wunderground v.1.15,2013-07-21 19:58:00,
2013-07-21 14:59:00,78.3,69.7,29.94,South,169,5.0,11.0,75,0.00,,,0.09,891,Wunderground v.1.15,2013-07-21 19:59:00,
2013-07-21 15:00:00,78.4,69.4,29.94,SW,214,5.0,5.0,74,0.00,,,0.09,884,Wunderground v.1.15,2013-07-21 20:00:00,
2013-07-21 15:02:00,78.5,68.3,29.93,East,86,5.0,7.0,71,0.00,,,0.09,513,Wunderground v.1.15,2013-07-21 20:02:00,
2013-07-21 15:04:00,78.5,68.3,29.93,East,90,4.0,7.0,71,0.00,,,0.09,534,Wunderground v.1.15,2013-07-21 20:04:00,
2013-07-21 15:06:00,78.5,67.9,29.93,SSE,165,4.0,7.0,70,0.00,,,0.09,650,Wunderground v.1.15,2013-07-21 20:06:00,
2013-07-21 15:07:00,78.5,68.3,29.93,SSW,200,4.0,7.0,71,0.00,,,0.09,722,Wunderground v.1.15,2013-07-21 20:07:00,
2013-07-21 15:09:00,78.5,68.7,29.93,South,190,4.0,7.0,72,0.00,,,0.09,722,Wunderground v.1.15,2013-07-21 20:09:00,
2013-07-21 15:11:00,78.5,68.3,29.93,SW,217,5.0,7.0,71,0.00,,,0.09,610,Wunderground v.1.15,2013-07-21 20:11:00,
2013-07-21 15:14:00,78.4,68.2,29.93,SSW,196,5.0,7.0,71,0.00,,,0.09,424,Wunderground v.1.15,2013-07-21 20:14:00,
2013-07-21 15:15:00,78.3,67.7,29.93,South,188,5.0,7.0,70,0.00,,,0.09,420,Wunderground v.1.15,2013-07-21 20:15:00,
2013-07-21 15:17:00,78.2,67.6,29.93,SW,228,5.0,7.0,70,0.00,,,0.09,439,Wunderground v.1.15,2013-07-21 20:17:00,
2013-07-21 15:20:00,78.0,67.4,29.93,SSW,200,5.0,5.0,70,0.00,,,0.09,527,Wunderground v.1.15,2013-07-21 20:20:00,
2013-07-21 15:22:00,77.9,67.7,29.93,ENE,67,4.0,5.0,71,0.00,,,0.09,469,Wunderground v.1.15,2013-07-21 20:22:00,
2013-07-21 15:23:00,78.0,68.2,29.93,South,180,4.0,5.0,72,0.00,,,0.09,450,Wunderground v.1.15,2013-07-21 20:23:00,
2013-07-21 15:25:00,78.0,68.2,29.92,South,183,4.0,5.0,72,0.00,,,0.09,417,Wunderground v.1.15,2013-07-21 20:25:00,
2013-07-21 15:28:00,77.9,67.7,29.92,South,180,3.0,8.0,71,0.00,,,0.09,410,Wunderground v.1.15,2013-07-21 20:28:00,
2013-07-21 15:29:00,77.8,67.6,29.92,SSW,193,3.0,8.0,71,0.00,,,0.09,394,Wunderground v.1.15,2013-07-21 20:29:00,
2013-07-21 15:30:00,77.8,67.6,29.91,South,188,4.0,4.0,71,0.00,,,0.09,410,Wunderground v.1.15,2013-07-21 20:30:00,
2013-07-21 15:31:00,77.7,67.5,29.91,SW,215,4.0,4.0,71,0.00,,,0.09,478,Wunderground v.1.15,2013-07-21 20:31:00,
2013-07-21 15:34:00,77.7,67.5,29.91,South,190,5.0,7.0,71,0.00,,,0.09,485,Wunderground v.1.15,2013-07-21 20:34:00,
2013-07-21 15:35:00,77.7,67.5,29.91,SSE,167,5.0,7.0,71,0.00,,,0.09,469,Wunderground v.1.15,2013-07-21 20:35:00,
2013-07-21 15:37:00,77.6,67.0,29.91,SSW,202,5.0,7.0,70,0.00,,,0.09,469,Wunderground v.1.15,2013-07-21 20:37:00,
2013-07-21 15:38:00,77.6,67.4,29.91,SSW,204,5.0,7.0,71,0.00,,,0.09,329,Wunderground v.1.15,2013-07-21 20:38:00,
2013-07-21 15:39:00,77.6,67.4,29.91,SSW,198,5.0,8.0,71,0.00,,,0.09,318,Wunderground v.1.15,2013-07-21 20:39:00,
2013-07-21 15:40:00,77.6,67.4,29.91,SSW,198,6.0,7.0,71,0.00,,,0.09,322,Wunderground v.1.15,2013-07-21 20:40:00,
2013-07-21 15:44:00,77.4,67.3,29.91,SSW,196,6.0,9.0,71,0.00,,,0.09,334,Wunderground v.1.15,2013-07-21 20:44:00,
2013-07-21 15:45:00,77.4,66.8,29.91,SSW,198,6.0,9.0,70,0.00,,,0.09,313,Wunderground v.1.15,2013-07-21 20:45:00,
2013-07-21 15:46:00,77.3,67.2,29.91,East,97,6.0,9.0,71,0.00,,,0.09,320,Wunderground v.1.15,2013-07-21 20:46:00,
2013-07-21 15:49:00,77.2,67.1,29.90,SSW,193,7.0,9.0,71,0.00,,,0.09,462,Wunderground v.1.15,2013-07-21 20:49:00,
2013-07-21 15:51:00,77.3,67.6,29.91,South,190,6.0,7.0,72,0.00,,,0.09,462,Wunderground v.1.15,2013-07-21 20:51:00,
2013-07-21 15:52:00,77.3,67.6,29.91,South,169,6.0,7.0,72,0.00,,,0.09,287,Wunderground v.1.15,2013-07-21 20:52:00,
2013-07-21 15:53:00,77.4,67.7,29.91,ESE,113,6.0,8.0,72,0.00,,,0.09,285,Wunderground v.1.15,2013-07-21 20:53:00,
2013-07-21 15:56:00,77.4,66.8,29.90,South,188,5.0,8.0,70,0.00,,,0.09,306,Wunderground v.1.15,2013-07-21 20:56:00,
2013-07-21 15:58:00,77.4,66.8,29.90,SSE,159,5.0,8.0,70,0.00,,,0.09,330,Wunderground v.1.15,2013-07-21 20:58:00,
2013-07-21 15:59:00,77.4,66.8,29.90,SSE,163,5.0,8.0,70,0.00,,,0.09,346,Wunderground v.1.15,2013-07-21 20:59:00,
2013-07-21 16:00:00,77.5,66.9,29.90,SSW,198,5.0,6.0,70,0.00,,,0.09,343,Wunderground v.1.15,2013-07-21 21:00:00,
2013-07-21 16:01:00,77.5,66.9,29.90,SSW,192,5.0,11.0,70,0.00,,,0.09,397,Wunderground v.1.15,2013-07-21 21:01:00,
2013-07-21 16:04:00,77.6,67.4,29.90,SSW,196,5.0,11.0,71,0.00,,,0.09,475,Wunderground v.1.15,2013-07-21 21:04:00,
2013-07-21 16:05:00,77.6,67.4,29.90,SSW,198,6.0,11.0,71,0.00,,,0.09,425,Wunderground v.1.15,2013-07-21 21:05:00,
2013-07-21 16:06:00,77.6,67.4,29.90,South,185,6.0,11.0,71,0.00,,,0.09,522,Wunderground v.1.15,2013-07-21 21:06:00,
2013-07-21 16:08:00,77.6,67.9,29.90,South,189,7.0,11.0,72,0.00,,,0.09,664,Wunderground v.1.15,2013-07-21 21:08:00,
2013-07-21 16:10:00,77.8,68.0,29.89,SSW,202,7.0,7.0,72,0.00,,,0.09,851,Wunderground v.1.15,2013-07-21 21:10:00,
2013-07-21 16:12:00,78.0,67.8,29.90,NE,53,7.0,8.0,71,0.00,,,0.09,940,Wunderground v.1.15,2013-07-21 21:12:00,
2013-07-21 16:14:00,78.4,68.2,29.90,SSW,194,7.0,8.0,71,0.00,,,0.09,853,Wunderground v.1.15,2013-07-21 21:14:00,
2013-07-21 16:15:00,78.6,68.4,29.90,SSW,200,7.0,8.0,71,0.00,,,0.09,856,Wunderground v.1.15,2013-07-21 21:15:00,
2013-07-21 16:16:00,78.7,68.5,29.90,SSW,211,6.0,8.0,71,0.00,,,0.09,856,Wunderground v.1.15,2013-07-21 21:16:00,
2013-07-21 16:20:00,79.4,68.3,29.90,SW,229,6.0,9.0,69,0.00,,,0.09,865,Wunderground v.1.15,2013-07-21 21:20:00,
2013-07-21 16:21:00,79.5,68.0,29.90,SSW,204,6.0,9.0,68,0.00,,,0.09,865,Wunderground v.1.15,2013-07-21 21:21:00,
2013-07-21 16:22:00,79.6,68.5,29.90,South,178,6.0,9.0,69,0.00,,,0.09,828,Wunderground v.1.15,2013-07-21 21:22:00,
2013-07-21 16:24:00,79.6,68.5,29.90,South,180,6.0,9.0,69,0.00,,,0.09,807,Wunderground v.1.15,2013-07-21 21:24:00,
2013-07-21 16:25:00,79.7,68.6,29.90,SSW,194,6.0,9.0,69,0.00,,,0.09,788,Wunderground v.1.15,2013-07-21 21:25:00,
2013-07-21 16:27:00,79.9,68.8,29.90,SSW,200,6.0,9.0,69,0.00,,,0.09,770,Wunderground v.1.15,2013-07-21 21:27:00,
2013-07-21 16:28:00,80.0,68.9,29.90,ENE,69,6.0,9.0,69,0.00,,,0.09,745,Wunderground v.1.15,2013-07-21 21:28:00,
2013-07-21 16:33:00,80.3,68.8,29.90,SW,220,4.0,6.0,68,0.00,,,0.09,701,Wunderground v.1.15,2013-07-21 21:33:00,
2013-07-21 16:34:00,80.3,68.3,29.89,SW,217,4.0,7.0,67,0.00,,,0.09,686,Wunderground v.1.15,2013-07-21 21:34:00,
2013-07-21 16:35:00,80.3,67.9,29.89,SSW,211,4.0,7.0,66,0.00,,,0.09,682,Wunderground v.1.15,2013-07-21 21:35:00,
2013-07-21 16:36:00,80.4,68.0,29.89,SSW,208,5.0,7.0,66,0.00,,,0.09,675,Wunderground v.1.15,2013-07-21 21:36:00,
2013-07-21 16:39:00,80.3,68.3,29.89,South,173,5.0,7.0,67,0.00,,,0.09,654,Wunderground v.1.15,2013-07-21 21:39:00,
2013-07-21 16:40:00,80.4,68.4,29.89,SSW,202,5.0,6.0,67,0.00,,,0.09,650,Wunderground v.1.15,2013-07-21 21:40:00,
2013-07-21 16:41:00,80.4,68.9,29.89,SSW,194,5.0,6.0,68,0.00,,,0.09,647,Wunderground v.1.15,2013-07-21 21:41:00,
2013-07-21 16:42:00,80.5,68.1,29.89,South,182,5.0,6.0,66,0.00,,,0.09,647,Wunderground v.1.15,2013-07-21 21:42:00,
2013-07-21 16:47:00,80.5,68.5,29.89,South,186,5.0,7.0,67,0.00,,,0.09,610,Wunderground v.1.15,2013-07-21 21:47:00,
2013-07-21 16:49:00,80.5,68.5,29.89,South,186,6.0,7.0,67,0.00,,,0.09,513,Wunderground v.1.15,2013-07-21 21:49:00,
2013-07-21 16:50:00,80.4,68.4,29.89,South,184,6.0,6.0,67,0.00,,,0.09,480,Wunderground v.1.15,2013-07-21 21:50:00,
2013-07-21 16:51:00,80.4,68.9,29.89,South,176,6.0,6.0,68,0.00,,,0.09,406,Wunderground v.1.15,2013-07-21 21:51:00,
2013-07-21 16:52:00,80.4,68.9,29.89,ESE,107,6.0,6.0,68,0.00,,,0.09,404,Wunderground v.1.15,2013-07-21 21:52:00,
2013-07-21 16:53:00,80.4,69.3,29.89,South,186,5.0,6.0,69,0.00,,,0.09,346,Wunderground v.1.15,2013-07-21 21:53:00,
2013-07-21 16:54:00,80.3,68.8,29.89,WNW,290,5.0,6.0,68,0.00,,,0.09,271,Wunderground v.1.15,2013-07-21 21:54:00,
2013-07-21 16:57:00,80.2,67.8,29.89,SSW,202,5.0,10.0,66,0.00,,,0.09,271,Wunderground v.1.15,2013-07-21 21:57:00,
2013-07-21 16:58:00,80.0,67.2,29.89,SW,231,5.0,10.0,65,0.00,,,0.09,336,Wunderground v.1.15,2013-07-21 21:58:00,
2013-07-21 17:00:00,79.9,67.5,29.89,WNW,300,4.0,4.0,66,0.00,,,0.09,269,Wunderground v.1.15,2013-07-21 22:00:00,
2013-07-21 17:01:00,79.8,67.4,29.89,SE,141,4.0,6.0,66,0.00,,,0.09,274,Wunderground v.1.15,2013-07-21 22:01:00,
2013-07-21 17:04:00,79.4,67.5,29.88,SSW,200,4.0,14.0,67,0.00,,,0.09,262,Wunderground v.1.15,2013-07-21 22:04:00,
2013-07-21 17:05:00,79.4,67.9,29.88,SSE,165,4.0,14.0,68,0.00,,,0.09,299,Wunderground v.1.15,2013-07-21 22:05:00,
2013-07-21 17:06:00,79.3,67.8,29.88,South,172,4.0,14.0,68,0.00,,,0.09,304,Wunderground v.1.15,2013-07-21 22:06:00,
2013-07-21 17:07:00,79.3,67.8,29.88,WSW,253,4.0,14.0,68,0.00,,,0.09,279,Wunderground v.1.15,2013-07-21 22:07:00,
2013-07-21 17:08:00,79.2,67.7,29.88,SSW,207,3.0,14.0,68,0.00,,,0.09,279,Wunderground v.1.15,2013-07-21 22:08:00,
2013-07-21 17:13:00,79.0,67.5,29.88,SSW,202,4.0,5.0,68,0.00,,,0.09,225,Wunderground v.1.15,2013-07-21 22:13:00,
2013-07-21 17:14:00,78.9,67.4,29.88,SSW,197,4.0,5.0,68,0.00,,,0.09,216,Wunderground v.1.15,2013-07-21 22:14:00,
2013-07-21 17:16:00,78.8,67.3,29.88,South,190,5.0,7.0,68,0.00,,,0.09,225,Wunderground v.1.15,2013-07-21 22:16:00,
2013-07-21 17:17:00,78.8,67.3,29.88,South,178,5.0,7.0,68,0.00,,,0.09,221,Wunderground v.1.15,2013-07-21 22:17:00,
2013-07-21 17:18:00,78.7,67.7,29.88,SSW,192,6.0,10.0,69,0.00,,,0.09,218,Wunderground v.1.15,2013-07-21 22:18:00,
2013-07-21 17:22:00,78.4,67.0,29.88,South,177,6.0,6.0,68,0.00,,,0.09,193,Wunderground v.1.15,2013-07-21 22:22:00,
2013-07-21 17:23:00,78.4,67.4,29.88,South,181,6.0,6.0,69,0.00,,,0.09,188,Wunderground v.1.15,2013-07-21 22:23:00,
2013-07-21 17:24:00,78.3,67.3,29.88,SSW,200,6.0,6.0,69,0.00,,,0.09,188,Wunderground v.1.15,2013-07-21 22:24:00,
2013-07-21 17:26:00,78.3,67.3,29.88,South,190,6.0,6.0,69,0.00,,,0.09,183,Wunderground v.1.15,2013-07-21 22:26:00,
2013-07-21 17:27:00,78.2,67.2,29.88,South,185,6.0,6.0,69,0.00,,,0.09,179,Wunderground v.1.15,2013-07-21 22:27:00,
2013-07-21 17:28:00,78.2,67.2,29.88,SSW,211,5.0,7.0,69,0.00,,,0.09,176,Wunderground v.1.15,2013-07-21 22:28:00,
2013-07-21 17:31:00,78.0,67.4,29.88,ESE,115,5.0,5.0,70,0.00,,,0.09,174,Wunderground v.1.15,2013-07-21 22:31:00,
2013-07-21 17:32:00,78.0,67.4,29.88,West,279,5.0,5.0,70,0.00,,,0.09,174,Wunderground v.1.15,2013-07-21 22:32:00,
2013-07-21 17:34:00,77.9,67.3,29.88,East,99,5.0,5.0,70,0.00,,,0.09,171,Wunderground v.1.15,2013-07-21 22:34:00,
2013-07-21 17:37:00,77.8,67.2,29.87,SSW,204,4.0,5.0,70,0.00,,,0.09,160,Wunderground v.1.15,2013-07-21 22:37:00,
2013-07-21 17:38:00,77.8,67.2,29.87,South,183,4.0,5.0,70,0.00,,,0.09,160,Wunderground v.1.15,2013-07-21 22:38:00,
2013-07-21 17:39:00,77.7,66.7,29.87,South,189,4.0,8.0,69,0.00,,,0.09,156,Wunderground v.1.15,2013-07-21 22:39:00,
2013-07-21 17:40:00,77.6,66.2,29.87,South,188,5.0,7.0,68,0.00,,,0.09,153,Wunderground v.1.15,2013-07-21 22:40:00,
2013-07-21 17:41:00,77.6,66.6,29.87,South,191,5.0,9.0,69,0.00,,,0.09,151,Wunderground v.1.15,2013-07-21 22:41:00,
2013-07-21 17:45:00,77.3,66.3,29.87,South,182,7.0,9.0,69,0.00,,,0.09,146,Wunderground v.1.15,2013-07-21 22:45:00,
2013-07-21 17:48:00,77.2,66.7,29.88,South,178,7.0,9.0,70,0.00,,,0.09,144,Wunderground v.1.15,2013-07-21 22:48:00,
2013-07-21 17:49:00,77.1,66.1,29.88,South,189,7.0,9.0,69,0.00,,,0.09,144,Wunderground v.1.15,2013-07-21 22:49:00,
2013-07-21 17:53:00,77.0,66.0,29.88,SSW,200,6.0,7.0,69,0.00,,,0.09,132,Wunderground v.1.15,2013-07-21 22:53:00,
2013-07-21 17:54:00,77.0,66.0,29.88,SSW,192,6.0,7.0,69,0.00,,,0.09,125,Wunderground v.1.15,2013-07-21 22:54:00,
2013-07-21 17:57:00,76.9,66.0,29.88,South,169,5.0,7.0,69,0.00,,,0.09,116,Wunderground v.1.15,2013-07-21 22:57:00,
2013-07-21 17:58:00,76.8,65.9,29.88,South,182,5.0,7.0,69,0.00,,,0.09,114,Wunderground v.1.15,2013-07-21 22:58:00,
2013-07-21 17:59:00,76.8,65.9,29.88,SSW,194,5.0,7.0,69,0.00,,,0.09,113,Wunderground v.1.15,2013-07-21 22:59:00,
2013-07-21 18:01:00,76.8,65.9,29.88,SSW,192,4.0,12.0,69,0.00,,,0.09,111,Wunderground v.1.15,2013-07-21 23:01:00,
2013-07-21 18:02:00,76.8,65.9,29.88,SSW,198,4.0,12.0,69,0.00,,,0.09,109,Wunderground v.1.15,2013-07-21 23:02:00,
2013-07-21 18:03:00,76.8,65.9,29.88,SSW,192,4.0,12.0,69,0.00,,,0.09,111,Wunderground v.1.15,2013-07-21 23:03:00,
2013-07-21 18:04:00,76.8,65.9,29.87,SSW,192,4.0,12.0,69,0.00,,,0.09,111,Wunderground v.1.15,2013-07-21 23:04:00,
2013-07-21 18:09:00,76.8,66.3,29.88,South,189,3.0,12.0,70,0.00,,,0.09,114,Wunderground v.1.15,2013-07-21 23:09:00,
2013-07-21 18:10:00,76.8,66.3,29.88,South,188,3.0,4.0,70,0.00,,,0.09,114,Wunderground v.1.15,2013-07-21 23:10:00,
2013-07-21 18:11:00,76.8,66.3,29.88,South,188,3.0,4.0,70,0.00,,,0.09,114,Wunderground v.1.15,2013-07-21 23:11:00,
2013-07-21 18:14:00,76.8,66.3,29.88,SSW,195,3.0,6.0,70,0.00,,,0.09,111,Wunderground v.1.15,2013-07-21 23:14:00,
2013-07-21 18:16:00,76.8,66.3,29.88,South,182,3.0,6.0,70,0.00,,,0.09,109,Wunderground v.1.15,2013-07-21 23:16:00,
2013-07-21 18:17:00,76.8,66.7,29.88,South,184,4.0,6.0,71,0.00,,,0.09,107,Wunderground v.1.15,2013-07-21 23:17:00,
2013-07-21 18:18:00,76.8,66.7,29.88,South,184,4.0,6.0,71,0.00,,,0.09,107,Wunderground v.1.15,2013-07-21 23:18:00,
2013-07-21 18:23:00,76.7,66.6,29.88,South,185,4.0,4.0,71,0.00,,,0.09,102,Wunderground v.1.15,2013-07-21 23:23:00,
2013-07-21 18:24:00,76.7,67.0,29.88,South,186,4.0,4.0,72,0.00,,,0.09,100,Wunderground v.1.15,2013-07-21 23:24:00,
2013-07-21 18:25:00,76.7,67.0,29.88,South,186,4.0,5.0,72,0.00,,,0.09,97,Wunderground v.1.15,2013-07-21 23:25:00,
2013-07-21 18:28:00,76.7,67.0,29.88,South,177,4.0,5.0,72,0.00,,,0.09,91,Wunderground v.1.15,2013-07-21 23:28:00,
2013-07-21 18:30:00,76.7,66.6,29.88,South,184,4.0,4.0,71,0.00,,,0.09,88,Wunderground v.1.15,2013-07-21 23:30:00,
2013-07-21 18:31:00,76.6,66.5,29.88,South,185,4.0,4.0,71,0.00,,,0.09,84,Wunderground v.1.15,2013-07-21 23:31:00,
2013-07-21 18:32:00,76.6,66.5,29.88,South,185,4.0,5.0,71,0.00,,,0.09,83,Wunderground v.1.15,2013-07-21 23:32:00,
2013-07-21 18:34:00,76.6,66.5,29.88,South,186,4.0,6.0,71,0.00,,,0.09,79,Wunderground v.1.15,2013-07-21 23:34:00,
2013-07-21 18:36:00,76.6,66.9,29.88,South,173,4.0,6.0,72,0.00,,,0.09,76,Wunderground v.1.15,2013-07-21 23:36:00,
2013-07-21 18:37:00,76.6,66.9,29.88,South,173,4.0,6.0,72,0.00,,,0.09,74,Wunderground v.1.15,2013-07-21 23:37:00,
2013-07-21 18:38:00,76.5,66.8,29.88,South,173,4.0,6.0,72,0.00,,,0.09,74,Wunderground v.1.15,2013-07-21 23:38:00,
2013-07-21 18:40:00,76.5,66.8,29.89,South,173,3.0,3.0,72,0.00,,,0.09,72,Wunderground v.1.15,2013-07-21 23:40:00,
2013-07-21 18:41:00,76.5,67.2,29.89,South,173,3.0,3.0,73,0.00,,,0.09,70,Wunderground v.1.15,2013-07-21 23:41:00,
2013-07-21 18:43:00,76.5,66.8,29.89,South,173,3.0,4.0,72,0.00,,,0.09,69,Wunderground v.1.15,2013-07-21 23:43:00,
2013-07-21 18:44:00,76.5,66.8,29.89,South,173,3.0,4.0,72,0.00,,,0.09,69,Wunderground v.1.15,2013-07-21 23:44:00,
2013-07-21 18:49:00,76.4,66.7,29.88,South,173,3.0,4.0,72,0.00,,,0.09,70,Wunderground v.1.15,2013-07-21 23:49:00,
2013-07-21 18:50:00,76.4,66.7,29.88,South,173,3.0,3.0,72,0.00,,,0.09,72,Wunderground v.1.15,2013-07-21 23:50:00,
2013-07-21 18:53:00,76.4,66.7,29.88,South,173,2.0,4.0,72,0.00,,,0.09,72,Wunderground v.1.15,2013-07-21 23:53:00,
2013-07-21 18:55:00,76.3,66.6,29.88,South,173,1.0,4.0,72,0.00,,,0.09,74,Wunderground v.1.15,2013-07-21 23:55:00,
2013-07-21 18:56:00,76.3,66.6,29.89,South,173,1.0,4.0,72,0.00,,,0.09,76,Wunderground v.1.15,2013-07-21 23:56:00,
2013-07-21 18:58:00,76.3,66.6,29.88,South,173,1.0,5.0,72,0.00,,,0.09,77,Wunderground v.1.15,2013-07-21 23:58:00,
2013-07-21 19:00:00,76.3,66.6,29.88,ESE,113,1.0,1.0,72,0.00,,,0.09,79,Wunderground v.1.15,2013-07-22 00:00:00,
2013-07-21 19:02:00,76.3,67.0,29.88,SSE,168,1.0,13.0,73,0.00,,,0.09,81,Wunderground v.1.15,2013-07-22 00:02:00,
2013-07-21 19:03:00,76.3,67.0,29.88,SSE,155,1.0,13.0,73,0.00,,,0.09,81,Wunderground v.1.15,2013-07-22 00:03:00,
2013-07-21 19:04:00,76.3,67.0,29.88,SSE,161,1.0,13.0,73,0.00,,,0.09,81,Wunderground v.1.15,2013-07-22 00:04:00,
2013-07-21 19:05:00,76.2,66.9,29.88,SSE,161,1.0,13.0,73,0.00,,,0.09,83,Wunderground v.1.15,2013-07-22 00:05:00,
2013-07-21 19:07:00,76.2,66.5,29.89,SSE,161,1.0,13.0,72,0.00,,,0.09,83,Wunderground v.1.15,2013-07-22 00:07:00,
2013-07-21 19:09:00,76.2,66.5,29.89,SSE,164,1.0,13.0,72,0.00,,,0.09,84,Wunderground v.1.15,2013-07-22 00:09:00,
2013-07-21 19:12:00,76.2,66.5,29.89,South,180,2.0,5.0,72,0.00,,,0.09,84,Wunderground v.1.15,2013-07-22 00:12:00,
2013-07-21 19:13:00,76.2,66.9,29.89,South,180,2.0,5.0,73,0.00,,,0.09,84,Wunderground v.1.15,2013-07-22 00:13:00,
2013-07-21 19:14:00,76.2,66.9,29.89,South,180,2.0,5.0,73,0.00,,,0.09,84,Wunderground v.1.15,2013-07-22 00:14:00,
2013-07-21 19:16:00,76.2,66.9,29.88,South,180,2.0,5.0,73,0.00,,,0.09,83,Wunderground v.1.15,2013-07-22 00:16:00,
2013-07-21 19:17:00,76.2,66.9,29.89,South,180,2.0,5.0,73,0.00,,,0.09,83,Wunderground v.1.15,2013-07-22 00:17:00,
2013-07-21 19:19:00,76.2,66.9,29.89,SSE,153,2.0,5.0,73,0.00,,,0.09,83,Wunderground v.1.15,2013-07-22 00:19:00,
2013-07-21 19:20:00,76.2,66.9,29.89,South,186,2.0,2.0,73,0.00,,,0.09,83,Wunderground v.1.15,2013-07-22 00:20:00,
2013-07-21 19:24:00,76.1,66.8,29.89,SSE,159,2.0,2.0,73,0.00,,,0.09,81,Wunderground v.1.15,2013-07-22 00:24:00,
2013-07-21 19:25:00,76.2,66.9,29.89,SSE,159,2.0,2.0,73,0.00,,,0.09,81,Wunderground v.1.15,2013-07-22 00:25:00,
2013-07-21 19:26:00,76.2,66.9,29.89,SSE,159,2.0,2.0,73,0.00,,,0.09,83,Wunderground v.1.15,2013-07-22 00:26:00,
2013-07-21 19:28:00,76.2,67.3,29.89,SSE,159,2.0,2.0,74,0.00,,,0.09,83,Wunderground v.1.15,2013-07-22 00:28:00,
2013-07-21 19:29:00,76.2,67.3,29.89,SSE,159,2.0,2.0,74,0.00,,,0.09,83,Wunderground v.1.15,2013-07-22 00:29:00,
2013-07-21 19:34:00,76.1,67.2,29.89,SSW,192,3.0,6.0,74,0.00,,,0.09,84,Wunderground v.1.15,2013-07-22 00:34:00,
2013-07-21 19:35:00,76.2,67.3,29.89,South,184,3.0,6.0,74,0.00,,,0.09,84,Wunderground v.1.15,2013-07-22 00:35:00,
2013-07-21 19:36:00,76.1,67.2,29.89,South,189,3.0,6.0,74,0.00,,,0.09,84,Wunderground v.1.15,2013-07-22 00:36:00,
2013-07-21 19:37:00,76.1,67.2,29.89,South,181,4.0,6.0,74,0.00,,,0.09,84,Wunderground v.1.15,2013-07-22 00:37:00,
2013-07-21 19:42:00,76.2,67.7,29.88,South,183,4.0,4.0,75,0.00,,,0.09,83,Wunderground v.1.15,2013-07-22 00:42:00,
2013-07-21 19:43:00,76.2,67.7,29.88,South,190,4.0,6.0,75,0.00,,,0.09,83,Wunderground v.1.15,2013-07-22 00:43:00,
2013-07-21 19:45:00,76.2,67.3,29.88,South,190,3.0,6.0,74,0.00,,,0.09,81,Wunderground v.1.15,2013-07-22 00:45:00,
2013-07-21 19:47:00,76.2,67.7,29.88,SSW,193,3.0,6.0,75,0.00,,,0.09,79,Wunderground v.1.15,2013-07-22 00:47:00,
2013-07-21 19:49:00,76.2,67.7,29.88,SSW,192,3.0,6.0,75,0.00,,,0.09,95,Wunderground v.1.15,2013-07-22 00:49:00,
2013-07-21 19:50:00,76.2,67.7,29.88,SSW,192,3.0,3.0,75,0.00,,,0.09,93,Wunderground v.1.15,2013-07-22 00:50:00,
2013-07-21 19:52:00,76.3,67.8,29.88,SSW,192,3.0,3.0,75,0.00,,,0.09,91,Wunderground v.1.15,2013-07-22 00:52:00,
2013-07-21 19:53:00,76.3,67.8,29.88,SSW,192,3.0,3.0,75,0.00,,,0.09,81,Wunderground v.1.15,2013-07-22 00:53:00,
2013-07-21 19:55:00,76.3,67.8,29.88,South,191,3.0,5.0,75,0.00,,,0.09,72,Wunderground v.1.15,2013-07-22 00:55:00,
2013-07-21 19:57:00,76.3,67.4,29.88,SSW,196,3.0,5.0,74,0.00,,,0.09,63,Wunderground v.1.15,2013-07-22 00:57:00,
2013-07-21 19:58:00,76.3,67.4,29.88,SSW,196,3.0,5.0,74,0.00,,,0.09,62,Wunderground v.1.15,2013-07-22 00:58:00,
2013-07-21 20:00:00,76.4,67.5,29.88,SSW,196,3.0,4.0,74,0.00,,,0.09,56,Wunderground v.1.15,2013-07-22 01:00:00,
2013-07-21 20:03:00,76.3,67.8,29.89,South,187,4.0,9.0,75,0.00,,,0.09,51,Wunderground v.1.15,2013-07-22 01:03:00,
2013-07-21 20:05:00,76.3,67.8,29.88,South,186,4.0,9.0,75,0.00,,,0.09,49,Wunderground v.1.15,2013-07-22 01:05:00,
2013-07-21 20:08:00,76.3,67.8,29.88,SSW,192,4.0,9.0,75,0.00,,,0.09,46,Wunderground v.1.15,2013-07-22 01:08:00,
2013-07-21 20:09:00,76.3,67.8,29.88,SSE,156,3.0,9.0,75,0.00,,,0.09,44,Wunderground v.1.15,2013-07-22 01:09:00,
2013-07-21 20:11:00,76.3,67.8,29.88,South,170,3.0,3.0,75,0.00,,,0.09,40,Wunderground v.1.15,2013-07-22 01:11:00,
2013-07-21 20:12:00,76.3,67.8,29.88,South,183,3.0,4.0,75,0.00,,,0.09,40,Wunderground v.1.15,2013-07-22 01:12:00,
2013-07-21 20:13:00,76.2,67.7,29.88,South,183,3.0,4.0,75,0.00,,,0.09,39,Wunderground v.1.15,2013-07-22 01:13:00,
2013-07-21 20:16:00,76.2,67.7,29.88,South,180,3.0,5.0,75,0.00,,,0.09,35,Wunderground v.1.15,2013-07-22 01:16:00,
2013-07-21 20:17:00,76.2,67.7,29.88,South,180,3.0,5.0,75,0.00,,,0.09,32,Wunderground v.1.15,2013-07-22 01:17:00,
2013-07-21 20:18:00,76.2,67.7,29.89,South,182,3.0,5.0,75,0.00,,,0.09,30,Wunderground v.1.15,2013-07-22 01:18:00,
2013-07-21 20:20:00,76.2,67.7,29.89,South,174,3.0,4.0,75,0.00,,,0.09,28,Wunderground v.1.15,2013-07-22 01:20:00,
2013-07-21 20:21:00,76.1,67.6,29.89,South,174,3.0,4.0,75,0.00,,,0.09,26,Wunderground v.1.15,2013-07-22 01:21:00,
2013-07-21 20:22:00,76.1,67.6,29.89,South,174,3.0,4.0,75,0.00,,,0.09,25,Wunderground v.1.15,2013-07-22 01:22:00,
2013-07-21 20:23:00,76.1,67.6,29.89,South,174,3.0,4.0,75,0.00,,,0.09,23,Wunderground v.1.15,2013-07-22 01:23:00,
2013-07-21 20:25:00,76.1,67.6,29.89,South,174,2.0,4.0,75,0.00,,,0.09,23,Wunderground v.1.15,2013-07-22 01:25:00,
2013-07-21 20:26:00,76.1,67.6,29.89,South,174,2.0,4.0,75,0.00,,,0.09,23,Wunderground v.1.15,2013-07-22 01:26:00,
2013-07-21 20:29:00,76.0,67.5,29.89,South,174,2.0,4.0,75,0.00,,,0.09,18,Wunderground v.1.15,2013-07-22 01:29:00,
2013-07-21 20:32:00,75.9,67.4,29.89,South,174,2.0,4.0,75,0.00,,,0.09,16,Wunderground v.1.15,2013-07-22 01:32:00,
2013-07-21 20:33:00,75.9,67.4,29.89,South,174,2.0,4.0,75,0.00,,,0.09,16,Wunderground v.1.15,2013-07-22 01:33:00,
2013-07-21 20:34:00,75.9,67.4,29.89,South,182,2.0,4.0,75,0.00,,,0.09,16,Wunderground v.1.15,2013-07-22 01:34:00,
2013-07-21 20:36:00,75.9,67.4,29.89,South,182,2.0,4.0,75,0.00,,,0.09,14,Wunderground v.1.15,2013-07-22 01:36:00,
2013-07-21 20:37:00,75.8,67.3,29.89,South,182,2.0,4.0,75,0.00,,,0.09,14,Wunderground v.1.15,2013-07-22 01:37:00,
2013-07-21 20:39:00,75.8,67.3,29.89,South,182,2.0,4.0,75,0.00,,,0.09,12,Wunderground v.1.15,2013-07-22 01:39:00,
2013-07-21 20:40:00,75.8,67.3,29.89,South,182,2.0,3.0,75,0.00,,,0.09,12,Wunderground v.1.15,2013-07-22 01:40:00,
2013-07-21 20:45:00,75.6,67.5,29.89,South,182,2.0,3.0,76,0.00,,,0.09,11,Wunderground v.1.15,2013-07-22 01:45:00,
2013-07-21 20:46:00,75.6,67.5,29.89,South,182,2.0,3.0,76,0.00,,,0.09,11,Wunderground v.1.15,2013-07-22 01:46:00,
2013-07-21 20:47:00,75.6,67.5,29.89,South,172,2.0,4.0,76,0.00,,,0.09,11,Wunderground v.1.15,2013-07-22 01:47:00,
2013-07-21 20:48:00,75.5,67.4,29.89,SSW,196,2.0,4.0,76,0.00,,,0.09,9,Wunderground v.1.15,2013-07-22 01:48:00,
2013-07-21 20:51:00,75.4,67.3,29.89,SSW,194,3.0,4.0,76,0.00,,,0.09,7,Wunderground v.1.15,2013-07-22 01:51:00,
2013-07-21 20:52:00,75.4,67.7,29.89,SSW,194,3.0,4.0,77,0.00,,,0.09,7,Wunderground v.1.15,2013-07-22 01:52:00,
2013-07-21 20:54:00,75.3,67.6,29.89,SSW,194,3.0,4.0,77,0.00,,,0.09,5,Wunderground v.1.15,2013-07-22 01:54:00,
2013-07-21 20:56:00,75.3,67.6,29.89,SSW,194,3.0,4.0,77,0.00,,,0.09,0,Wunderground v.1.15,2013-07-22 01:56:00,
2013-07-21 20:57:00,75.2,67.5,29.89,SSW,194,3.0,4.0,77,0.00,,,0.09,0,Wunderground v.1.15,2013-07-22 01:57:00,
2013-07-21 20:58:00,75.2,67.5,29.89,SSW,194,3.0,4.0,77,0.00,,,0.09,0,Wunderground v.1.15,2013-07-22 01:58:00,
2013-07-21 21:00:00,75.1,67.4,29.89,SSW,194,2.0,2.0,77,0.00,,,0.09,0,Wunderground v.1.15,2013-07-22 02:00:00,
2013-07-21 21:02:00,75.1,67.4,29.89,SSW,194,2.0,7.0,77,0.00,,,0.09,0,Wunderground v.1.15,2013-07-22 02:02:00,
2013-07-21 21:03:00,75.0,67.3,29.89,SSW,194,2.0,7.0,77,0.00,,,0.09,0,Wunderground v.1.15,2013-07-22 02:03:00,
2013-07-21 21:06:00,74.9,67.6,29.89,SSW,194,2.0,7.0,78,0.00,,,0.09,0,Wunderground v.1.15,2013-07-22 02:06:00,
2013-07-21 21:08:00,74.8,67.5,29.89,South,179,2.0,7.0,78,0.00,,,0.09,0,Wunderground v.1.15,2013-07-22 02:08:00,
2013-07-21 21:10:00,74.7,67.4,29.89,South,180,3.0,4.0,78,0.00,,,0.09,0,Wunderground v.1.15,2013-07-22 02:10:00,
2013-07-21 21:11:00,74.6,67.3,29.89,South,180,3.0,5.0,78,0.00,,,0.09,0,Wunderground v.1.15,2013-07-22 02:11:00,
2013-07-21 21:13:00,74.6,67.7,29.89,South,184,4.0,5.0,79,0.00,,,0.09,0,Wunderground v.1.15,2013-07-22 02:13:00,
2013-07-21 21:14:00,74.5,67.6,29.89,South,186,4.0,5.0,79,0.00,,,0.09,0,Wunderground v.1.15,2013-07-22 02:14:00,
2013-07-21 21:17:00,74.4,67.5,29.89,South,190,4.0,5.0,79,0.00,,,0.09,0,Wunderground v.1.15,2013-07-22 02:17:00,
2013-07-21 21:19:00,74.3,67.4,29.89,South,180,4.0,5.0,79,0.00,,,0.09,0,Wunderground v.1.15,2013-07-22 02:19:00,
2013-07-21 21:22:00,74.2,67.3,29.89,South,183,4.0,5.0,79,0.00,,,0.09,0,Wunderground v.1.15,2013-07-22 02:22:00,
2013-07-21 21:23:00,74.1,67.2,29.89,South,185,4.0,5.0,79,0.00,,,0.09,0,Wunderground v.1.15,2013-07-22 02:23:00,
2013-07-21 21:27:00,74.0,67.4,29.90,South,184,4.0,5.0,80,0.00,,,0.09,0,Wunderground v.1.15,2013-07-22 02:27:00,
2013-07-21 21:28:00,74.0,67.4,29.90,South,184,4.0,5.0,80,0.00,,,0.09,0,Wunderground v.1.15,2013-07-22 02:28:00,
2013-07-21 21:29:00,74.0,67.4,29.90,South,184,4.0,5.0,80,0.00,,,0.09,0,Wunderground v.1.15,2013-07-22 02:29:00,
2013-07-21 21:32:00,73.9,67.3,29.90,SSW,193,4.0,4.0,80,0.00,,,0.09,0,Wunderground v.1.15,2013-07-22 02:32:00,
2013-07-21 21:33:00,73.9,67.3,29.90,South,184,4.0,4.0,80,0.00,,,0.09,0,Wunderground v.1.15,2013-07-22 02:33:00,
2013-07-21 21:35:00,73.8,67.2,29.90,South,185,4.0,4.0,80,0.00,,,0.09,0,Wunderground v.1.15,2013-07-22 02:35:00,
2013-07-21 21:36:00,73.8,67.2,29.90,South,185,4.0,4.0,80,0.00,,,0.09,0,Wunderground v.1.15,2013-07-22 02:36:00,
2013-07-21 21:37:00,73.8,67.2,29.91,South,185,4.0,4.0,80,0.00,,,0.09,0,Wunderground v.1.15,2013-07-22 02:37:00,
2013-07-21 21:38:00,73.8,67.2,29.91,South,185,4.0,4.0,80,0.00,,,0.09,0,Wunderground v.1.15,2013-07-22 02:38:00,
2013-07-21 21:42:00,73.7,67.1,29.91,South,184,3.0,3.0,80,0.00,,,0.09,0,Wunderground v.1.15,2013-07-22 02:42:00,
2013-07-21 21:43:00,73.7,67.1,29.91,South,182,3.0,4.0,80,0.00,,,0.09,0,Wunderground v.1.15,2013-07-22 02:43:00,
2013-07-21 21:44:00,73.7,67.1,29.91,South,182,3.0,4.0,80,0.00,,,0.09,0,Wunderground v.1.15,2013-07-22 02:44:00,
2013-07-21 21:46:00,73.7,67.1,29.91,South,184,3.0,4.0,80,0.00,,,0.09,0,Wunderground v.1.15,2013-07-22 02:46:00,
2013-07-21 21:49:00,73.6,67.0,29.91,South,185,3.0,4.0,80,0.00,,,0.09,0,Wunderground v.1.15,2013-07-22 02:49:00,
2013-07-21 21:50:00,73.5,66.9,29.91,South,186,3.0,3.0,80,0.00,,,0.09,0,Wunderground v.1.15,2013-07-22 02:50:00,
2013-07-21 21:51:00,73.5,66.9,29.91,South,186,3.0,3.0,80,0.00,,,0.09,0,Wunderground v.1.15,2013-07-22 02:51:00,
2013-07-21 21:55:00,73.5,67.3,29.91,South,186,3.0,4.0,81,0.00,,,0.09,0,Wunderground v.1.15,2013-07-22 02:55:00,
2013-07-21 21:57:00,73.5,67.3,29.91,South,186,3.0,4.0,81,0.00,,,0.09,0,Wunderground v.1.15,2013-07-22 02:57:00,
2013-07-21 21:58:00,73.4,67.2,29.91,South,186,3.0,4.0,81,0.00,,,0.09,0,Wunderground v.1.15,2013-07-22 02:58:00,
2013-07-21 21:59:00,73.4,67.2,29.92,South,186,3.0,4.0,81,0.00,,,0.09,0,Wunderground v.1.15,2013-07-22 02:59:00,
2013-07-21 22:01:00,73.4,67.2,29.92,South,186,2.0,3.0,81,0.00,,,0.09,0,Wunderground v.1.15,2013-07-22 03:01:00,
2013-07-21 22:02:00,73.4,67.2,29.92,South,190,2.0,4.0,81,0.00,,,0.09,0,Wunderground v.1.15,2013-07-22 03:02:00,
2013-07-21 22:05:00,73.3,67.1,29.92,South,190,2.0,7.0,81,0.00,,,0.09,0,Wunderground v.1.15,2013-07-22 03:05:00,
2013-07-21 22:07:00,73.3,67.1,29.92,South,190,2.0,7.0,81,0.00,,,0.09,0,Wunderground v.1.15,2013-07-22 03:07:00,
2013-07-21 22:09:00,73.3,67.1,29.92,South,190,2.0,7.0,81,0.00,,,0.09,0,Wunderground v.1.15,2013-07-22 03:09:00,
2013-07-21 22:12:00,73.2,67.0,29.92,South,190,1.0,2.0,81,0.00,,,0.09,0,Wunderground v.1.15,2013-07-22 03:12:00,
2013-07-21 22:13:00,73.2,67.0,29.92,South,190,1.0,2.0,81,0.00,,,0.09,0,Wunderground v.1.15,2013-07-22 03:13:00,
2013-07-21 22:14:00,73.2,67.0,29.92,South,190,1.0,2.0,81,0.00,,,0.09,0,Wunderground v.1.15,2013-07-22 03:14:00,
2013-07-21 22:15:00,73.2,67.0,29.92,South,190,1.0,2.0,81,0.00,,,0.09,0,Wunderground v.1.15,2013-07-22 03:15:00,
2013-07-21 22:16:00,73.2,67.0,29.92,South,190,1.0,2.0,81,0.00,,,0.09,0,Wunderground v.1.15,2013-07-22 03:16:00,
2013-07-21 22:19:00,73.1,67.3,29.92,South,190,1.0,2.0,82,0.00,,,0.09,0,Wunderground v.1.15,2013-07-22 03:19:00,
2013-07-21 22:20:00,73.1,67.3,29.92,South,190,1.0,2.0,82,0.00,,,0.09,0,Wunderground v.1.15,2013-07-22 03:20:00,
2013-07-21 22:22:00,73.0,67.2,29.92,South,190,1.0,3.0,82,0.00,,,0.09,0,Wunderground v.1.15,2013-07-22 03:22:00,
2013-07-21 22:23:00,73.0,67.2,29.92,South,190,1.0,3.0,82,0.00,,,0.09,0,Wunderground v.1.15,2013-07-22 03:23:00,
2013-07-21 22:25:00,73.0,67.2,29.92,South,190,1.0,3.0,82,0.00,,,0.09,0,Wunderground v.1.15,2013-07-22 03:25:00,
2013-07-21 22:28:00,73.0,67.2,29.92,South,190,1.0,3.0,82,0.00,,,0.09,0,Wunderground v.1.15,2013-07-22 03:28:00,
2013-07-21 22:29:00,72.9,67.1,29.92,South,190,1.0,3.0,82,0.00,,,0.09,0,Wunderground v.1.15,2013-07-22 03:29:00,
2013-07-21 22:30:00,72.9,67.1,29.92,South,190,1.0,2.0,82,0.00,,,0.09,0,Wunderground v.1.15,2013-07-22 03:30:00,
2013-07-21 22:31:00,72.9,67.1,29.92,South,190,1.0,2.0,82,0.00,,,0.09,0,Wunderground v.1.15,2013-07-22 03:31:00,
2013-07-21 22:33:00,72.8,67.0,29.93,South,190,1.0,2.0,82,0.00,,,0.09,0,Wunderground v.1.15,2013-07-22 03:33:00,
2013-07-21 22:36:00,72.8,67.0,29.93,South,190,0.0,2.0,82,0.00,,,0.09,0,Wunderground v.1.15,2013-07-22 03:36:00,
2013-07-21 22:38:00,72.7,67.2,29.93,South,190,0.0,2.0,83,0.00,,,0.09,0,Wunderground v.1.15,2013-07-22 03:38:00,
2013-07-21 22:39:00,72.7,67.2,29.93,South,190,0.0,2.0,83,0.00,,,0.09,0,Wunderground v.1.15,2013-07-22 03:39:00,
2013-07-21 22:43:00,72.5,67.0,29.93,ESE,123,1.0,2.0,83,0.00,,,0.09,0,Wunderground v.1.15,2013-07-22 03:43:00,
2013-07-21 22:44:00,72.4,66.9,29.93,ESE,123,1.0,2.0,83,0.00,,,0.09,0,Wunderground v.1.15,2013-07-22 03:44:00,
2013-07-21 22:46:00,72.3,66.8,29.93,ESE,123,1.0,2.0,83,0.00,,,0.09,0,Wunderground v.1.15,2013-07-22 03:46:00,
2013-07-21 22:49:00,72.2,67.1,29.93,ESE,123,1.0,2.0,84,0.00,,,0.09,0,Wunderground v.1.15,2013-07-22 03:49:00,
2013-07-21 22:50:00,72.2,67.1,29.93,ESE,123,1.0,1.0,84,0.00,,,0.09,0,Wunderground v.1.15,2013-07-22 03:50:00,
2013-07-21 22:55:00,72.1,67.0,29.93,ESE,123,0.0,1.0,84,0.00,,,0.09,0,Wunderground v.1.15,2013-07-22 03:55:00,
2013-07-21 22:56:00,72.1,67.0,29.93,ESE,123,0.0,1.0,84,0.00,,,0.09,0,Wunderground v.1.15,2013-07-22 03:56:00,
2013-07-21 22:57:00,72.1,67.0,29.93,ESE,123,0.0,1.0,84,0.00,,,0.09,0,Wunderground v.1.15,2013-07-22 03:57:00,
2013-07-21 22:58:00,72.0,66.9,29.93,ESE,123,0.0,1.0,84,0.00,,,0.09,0,Wunderground v.1.15,2013-07-22 03:58:00,
2013-07-21 23:01:00,72.0,66.9,29.93,ESE,123,0.0,7.0,84,0.00,,,0.09,0,Wunderground v.1.15,2013-07-22 04:01:00,
2013-07-21 23:02:00,72.0,66.9,29.93,ESE,123,0.0,7.0,84,0.00,,,0.09,0,Wunderground v.1.15,2013-07-22 04:02:00,
2013-07-21 23:03:00,72.0,66.9,29.93,ESE,123,0.0,7.0,84,0.00,,,0.09,0,Wunderground v.1.15,2013-07-22 04:03:00,
2013-07-21 23:04:00,72.0,66.9,29.93,ESE,123,0.0,7.0,84,0.00,,,0.09,0,Wunderground v.1.15,2013-07-22 04:04:00,
2013-07-21 23:07:00,72.0,66.9,29.93,ESE,123,0.0,7.0,84,0.00,,,0.09,0,Wunderground v.1.15,2013-07-22 04:07:00,
2013-07-21 23:09:00,72.0,66.9,29.93,ESE,123,0.0,7.0,84,0.00,,,0.09,0,Wunderground v.1.15,2013-07-22 04:09:00,
2013-07-21 23:11:00,72.0,66.9,29.93,ESE,123,0.0,0.0,84,0.00,,,0.09,0,Wunderground v.1.15,2013-07-22 04:11:00,
2013-07-21 23:12:00,72.0,66.9,29.93,ESE,123,0.0,0.0,84,0.00,,,0.09,0,Wunderground v.1.15,2013-07-22 04:12:00,
2013-07-21 23:14:00,71.9,66.8,29.93,ESE,123,0.0,0.0,84,0.00,,,0.09,0,Wunderground v.1.15,2013-07-22 04:14:00,
2013-07-21 23:15:00,72.0,67.2,29.93,ESE,123,0.0,0.0,85,0.00,,,0.09,0,Wunderground v.1.15,2013-07-22 04:15:00,
2013-07-21 23:16:00,71.9,67.1,29.93,ESE,123,0.0,0.0,85,0.00,,,0.09,0,Wunderground v.1.15,2013-07-22 04:16:00,
2013-07-21 23:18:00,71.9,67.1,29.93,ESE,123,0.0,1.0,85,0.00,,,0.09,0,Wunderground v.1.15,2013-07-22 04:18:00,
2013-07-21 23:20:00,71.9,67.1,29.93,ESE,123,0.0,1.0,85,0.00,,,0.09,0,Wunderground v.1.15,2013-07-22 04:20:00,
2013-07-21 23:21:00,71.9,67.1,29.93,ESE,123,0.0,1.0,85,0.00,,,0.09,0,Wunderground v.1.15,2013-07-22 04:21:00,
2013-07-21 23:22:00,72.0,67.2,29.93,ESE,123,0.0,2.0,85,0.00,,,0.09,0,Wunderground v.1.15,2013-07-22 04:22:00,
2013-07-21 23:23:00,71.9,67.1,29.93,ESE,123,0.0,2.0,85,0.00,,,0.09,0,Wunderground v.1.15,2013-07-22 04:23:00,
2013-07-21 23:26:00,72.0,67.2,29.93,ESE,123,1.0,2.0,85,0.00,,,0.09,0,Wunderground v.1.15,2013-07-22 04:26:00,
2013-07-21 23:30:00,71.9,67.1,29.92,ESE,123,1.0,2.0,85,0.00,,,0.09,0,Wunderground v.1.15,2013-07-22 04:30:00,
2013-07-21 23:32:00,71.9,67.1,29.92,SE,134,1.0,2.0,85,0.00,,,0.09,0,Wunderground v.1.15,2013-07-22 04:32:00,
2013-07-21 23:34:00,71.9,67.1,29.92,ESE,102,1.0,2.0,85,0.00,,,0.09,0,Wunderground v.1.15,2013-07-22 04:34:00,
2013-07-21 23:35:00,72.0,67.2,29.92,SE,146,1.0,2.0,85,0.00,,,0.09,0,Wunderground v.1.15,2013-07-22 04:35:00,
2013-07-21 23:38:00,71.9,67.1,29.92,SSE,148,1.0,2.0,85,0.00,,,0.09,0,Wunderground v.1.15,2013-07-22 04:38:00,
2013-07-21 23:39:00,71.9,67.1,29.92,SSE,148,1.0,2.0,85,0.00,,,0.09,0,Wunderground v.1.15,2013-07-22 04:39:00,
2013-07-21 23:40:00,71.9,67.1,29.92,SSE,148,2.0,4.0,85,0.00,,,0.09,0,Wunderground v.1.15,2013-07-22 04:40:00,
2013-07-21 23:41:00,71.9,67.1,29.92,SSE,148,2.0,4.0,85,0.00,,,0.09,0,Wunderground v.1.15,2013-07-22 04:41:00,
2013-07-21 23:43:00,71.9,67.1,29.92,SSE,152,2.0,4.0,85,0.00,,,0.09,0,Wunderground v.1.15,2013-07-22 04:43:00,
2013-07-21 23:44:00,71.9,67.1,29.92,SSE,158,2.0,4.0,85,0.00,,,0.09,0,Wunderground v.1.15,2013-07-22 04:44:00,
2013-07-21 23:47:00,71.9,67.1,29.92,SSE,158,2.0,4.0,85,0.00,,,0.09,0,Wunderground v.1.15,2013-07-22 04:47:00,
2013-07-21 23:48:00,71.9,67.1,29.92,SSE,158,2.0,4.0,85,0.00,,,0.09,0,Wunderground v.1.15,2013-07-22 04:48:00,
2013-07-21 23:49:00,71.8,67.0,29.92,SSE,158,2.0,4.0,85,0.00,,,0.09,0,Wunderground v.1.15,2013-07-22 04:49:00,
2013-07-21 23:50:00,71.8,67.0,29.92,SSE,158,2.0,2.0,85,0.00,,,0.09,0,Wunderground v.1.15,2013-07-22 04:50:00,
2013-07-21 23:51:00,71.8,67.0,29.92,SSE,158,2.0,2.0,85,0.00,,,0.09,0,Wunderground v.1.15,2013-07-22 04:51:00,
2013-07-21 23:52:00,71.8,67.0,29.92,SSE,158,2.0,2.0,85,0.00,,,0.09,0,Wunderground v.1.15,2013-07-22 04:52:00,
2013-07-21 23:55:00,71.7,66.9,29.92,SSE,158,2.0,4.0,85,0.00,,,0.09,0,Wunderground v.1.15,2013-07-22 04:55:00,
2013-07-21 23:56:00,71.7,66.9,29.92,SSE,158,2.0,4.0,85,0.00,,,0.09,0,Wunderground v.1.15,2013-07-22 04:56:00,
2013-07-21 23:57:00,71.7,66.9,29.93,SSE,155,2.0,4.0,85,0.00,,,0.09,0,Wunderground v.1.15,2013-07-22 04:57:00,
2013-07-21 23:58:00,71.7,66.9,29.93,SSE,155,2.0,4.0,85,0.00,,,0.09,0,Wunderground v.1.15,2013-07-22 04:58:00,
2013-07-21 23:59:00,71.7,66.9,29.93,SE,139,2.0,4.0,85,0.00,,,0.00,0,Wunderground v.1.15,2013-07-22 04:59:00,